Time,TemperatureF,DewpointF,PressureIn,WindDirection,WindDirectionDegrees,WindSpeedMPH,WindSpeedGustMPH,Humidity,HourlyPrecipIn,Conditions,Clouds,dailyrainin,SoftwareType,DateUTC
2013-11-05 00:01:00,39.6,33.9,30.48,ENE,65,1.0,1.0,80,0.00,,,0.00,Wunderground v.1.15,2013-11-05 05:01:00,
2013-11-05 00:02:00,39.7,34.0,30.49,ENE,65,0.0,1.0,80,0.00,,,0.00,Wunderground v.1.15,2013-11-05 05:02:00,
2013-11-05 00:03:00,39.8,34.1,30.48,ENE,65,0.0,1.0,80,0.00,,,0.00,Wunderground v.1.15,2013-11-05 05:03:00,
2013-11-05 00:05:00,39.8,34.1,30.49,ENE,65,0.0,1.0,80,0.00,,,0.00,Wunderground v.1.15,2013-11-05 05:05:00,
2013-11-05 00:07:00,39.8,34.1,30.49,NE,34,0.0,1.0,80,0.00,,,0.00,Wunderground v.1.15,2013-11-05 05:07:00,
2013-11-05 00:08:00,39.9,34.2,30.49,NE,34,0.0,1.0,80,0.00,,,0.00,Wunderground v.1.15,2013-11-05 05:08:00,
2013-11-05 00:09:00,39.9,33.9,30.49,NE,34,1.0,1.0,79,0.00,,,0.00,Wunderground v.1.15,2013-11-05 05:09:00,
2013-11-05 00:13:00,40.0,34.0,30.48,NE,34,0.0,0.0,79,0.00,,,0.00,Wunderground v.1.15,2013-11-05 05:13:00,
2013-11-05 00:14:00,40.0,34.0,30.48,NE,34,1.0,1.0,79,0.00,,,0.00,Wunderground v.1.15,2013-11-05 05:14:00,
2013-11-05 00:15:00,40.1,34.1,30.48,NE,34,0.0,1.0,79,0.00,,,0.00,Wunderground v.1.15,2013-11-05 05:15:00,
2013-11-05 00:18:00,40.1,34.1,30.48,NE,34,1.0,1.0,79,0.00,,,0.00,Wunderground v.1.15,2013-11-05 05:18:00,
2013-11-05 00:19:00,40.1,34.1,30.48,NE,34,0.0,1.0,79,0.00,,,0.00,Wunderground v.1.15,2013-11-05 05:19:00,
2013-11-05 00:21:00,40.0,34.0,30.48,NE,34,0.0,0.0,79,0.00,,,0.00,Wunderground v.1.15,2013-11-05 05:21:00,
2013-11-05 00:22:00,40.0,34.0,30.48,NE,34,0.0,0.0,79,0.00,,,0.00,Wunderground v.1.15,2013-11-05 05:22:00,
2013-11-05 00:24:00,39.9,34.2,30.48,NE,34,0.0,0.0,80,0.00,,,0.00,Wunderground v.1.15,2013-11-05 05:24:00,
2013-11-05 00:26:00,39.9,34.2,30.48,NE,34,0.0,0.0,80,0.00,,,0.00,Wunderground v.1.15,2013-11-05 05:26:00,
2013-11-05 00:28:00,39.9,34.2,30.48,NE,34,0.0,0.0,80,0.00,,,0.00,Wunderground v.1.15,2013-11-05 05:28:00,
2013-11-05 00:31:00,39.9,34.2,30.48,NE,34,0.0,0.0,80,0.00,,,0.00,Wunderground v.1.15,2013-11-05 05:31:00,
2013-11-05 00:35:00,39.8,34.1,30.48,NW,309,0.0,0.0,80,0.00,,,0.00,Wunderground v.1.15,2013-11-05 05:35:00,
2013-11-05 00:36:00,39.9,34.2,30.48,NW,309,0.0,0.0,80,0.00,,,0.00,Wunderground v.1.15,2013-11-05 05:36:00,
2013-11-05 00:37:00,39.9,34.2,30.48,NW,309,0.0,0.0,80,0.00,,,0.00,Wunderground v.1.15,2013-11-05 05:37:00,
2013-11-05 00:40:00,39.8,34.1,30.48,NW,309,0.0,0.0,80,0.00,,,0.00,Wunderground v.1.15,2013-11-05 05:40:00,
2013-11-05 00:41:00,39.8,34.1,30.48,NW,309,0.0,0.0,80,0.00,,,0.00,Wunderground v.1.15,2013-11-05 05:41:00,
2013-11-05 00:42:00,39.8,34.1,30.48,WNW,302,0.0,0.0,80,0.00,,,0.00,Wunderground v.1.15,2013-11-05 05:42:00,
2013-11-05 00:43:00,39.8,34.1,30.48,WNW,302,0.0,0.0,80,0.00,,,0.00,Wunderground v.1.15,2013-11-05 05:43:00,
2013-11-05 00:47:00,39.7,34.3,30.48,WNW,302,0.0,0.0,81,0.00,,,0.00,Wunderground v.1.15,2013-11-05 05:47:00,
2013-11-05 00:48:00,39.7,34.3,30.48,WNW,302,0.0,0.0,81,0.00,,,0.00,Wunderground v.1.15,2013-11-05 05:48:00,
2013-11-05 00:50:00,39.6,34.2,30.48,WNW,302,0.0,0.0,81,0.00,,,0.00,Wunderground v.1.15,2013-11-05 05:50:00,
2013-11-05 00:51:00,39.6,34.2,30.48,WNW,302,0.0,0.0,81,0.00,,,0.00,Wunderground v.1.15,2013-11-05 05:51:00,
2013-11-05 00:52:00,39.6,34.2,30.48,WNW,302,0.0,0.0,81,0.00,,,0.00,Wunderground v.1.15,2013-11-05 05:52:00,
2013-11-05 00:56:00,39.5,34.2,30.47,WNW,302,0.0,0.0,81,0.00,,,0.00,Wunderground v.1.15,2013-11-05 05:56:00,
2013-11-05 00:57:00,39.5,34.5,30.48,WNW,302,1.0,1.0,82,0.00,,,0.00,Wunderground v.1.15,2013-11-05 05:57:00,
2013-11-05 00:59:00,39.5,34.5,30.47,WNW,302,0.0,1.0,82,0.00,,,0.00,Wunderground v.1.15,2013-11-05 05:59:00,
2013-11-05 01:00:00,39.5,34.5,30.47,WNW,302,1.0,1.0,82,0.00,,,0.00,Wunderground v.1.15,2013-11-05 06:00:00,
2013-11-05 01:01:00,39.5,34.5,30.47,WNW,300,0.0,1.0,82,0.00,,,0.00,Wunderground v.1.15,2013-11-05 06:01:00,
2013-11-05 01:03:00,39.5,34.5,30.48,WNW,300,0.0,1.0,82,0.00,,,0.00,Wunderground v.1.15,2013-11-05 06:03:00,
2013-11-05 01:05:00,39.5,34.5,30.48,WNW,300,0.0,1.0,82,0.00,,,0.00,Wunderground v.1.15,2013-11-05 06:05:00,
2013-11-05 01:06:00,39.5,34.5,30.48,WNW,300,0.0,1.0,82,0.00,,,0.00,Wunderground v.1.15,2013-11-05 06:06:00,
2013-11-05 01:07:00,39.5,34.5,30.48,WNW,300,0.0,1.0,82,0.00,,,0.00,Wunderground v.1.15,2013-11-05 06:07:00,
2013-11-05 01:08:00,39.5,34.5,30.48,WNW,299,0.0,1.0,82,0.00,,,0.00,Wunderground v.1.15,2013-11-05 06:08:00,
2013-11-05 01:11:00,39.4,34.4,30.48,WNW,300,0.0,0.0,82,0.00,,,0.00,Wunderground v.1.15,2013-11-05 06:11:00,
2013-11-05 01:12:00,39.4,34.4,30.48,WNW,300,0.0,0.0,82,0.00,,,0.00,Wunderground v.1.15,2013-11-05 06:12:00,
2013-11-05 01:13:00,39.4,34.4,30.48,WNW,299,0.0,0.0,82,0.00,,,0.00,Wunderground v.1.15,2013-11-05 06:13:00,
2013-11-05 01:17:00,39.3,34.3,30.48,WNW,300,0.0,0.0,82,0.00,,,0.00,Wunderground v.1.15,2013-11-05 06:17:00,
2013-11-05 01:20:00,39.2,34.5,30.48,WNW,300,0.0,0.0,83,0.00,,,0.00,Wunderground v.1.15,2013-11-05 06:20:00,
2013-11-05 01:23:00,39.1,34.4,30.48,WNW,295,1.0,1.0,83,0.00,,,0.00,Wunderground v.1.15,2013-11-05 06:23:00,
2013-11-05 01:25:00,39.1,34.4,30.48,NNW,338,0.0,1.0,83,0.00,,,0.00,Wunderground v.1.15,2013-11-05 06:25:00,
2013-11-05 01:26:00,39.0,34.3,30.48,NNW,338,0.0,1.0,83,0.00,,,0.00,Wunderground v.1.15,2013-11-05 06:26:00,
2013-11-05 01:29:00,39.0,34.3,30.48,NNW,337,0.0,1.0,83,0.00,,,0.00,Wunderground v.1.15,2013-11-05 06:29:00,
2013-11-05 01:30:00,39.0,34.3,30.49,NNW,338,0.0,0.0,83,0.00,,,0.00,Wunderground v.1.15,2013-11-05 06:30:00,
2013-11-05 01:31:00,39.0,34.3,30.49,NNW,337,0.0,0.0,83,0.00,,,0.00,Wunderground v.1.15,2013-11-05 06:31:00,
2013-11-05 01:34:00,38.9,34.2,30.49,NW,315,1.0,1.0,83,0.00,,,0.00,Wunderground v.1.15,2013-11-05 06:34:00,
2013-11-05 01:35:00,38.9,34.2,30.49,North,6,0.0,1.0,83,0.00,,,0.00,Wunderground v.1.15,2013-11-05 06:35:00,
2013-11-05 01:37:00,38.9,34.2,30.49,North,6,1.0,1.0,83,0.00,,,0.00,Wunderground v.1.15,2013-11-05 06:37:00,
2013-11-05 01:39:00,38.8,34.1,30.49,North,6,0.0,1.0,83,0.00,,,0.00,Wunderground v.1.15,2013-11-05 06:39:00,
2013-11-05 01:40:00,38.8,34.1,30.49,North,6,0.0,1.0,83,0.00,,,0.00,Wunderground v.1.15,2013-11-05 06:40:00,
2013-11-05 01:41:00,38.8,34.1,30.49,North,6,0.0,1.0,83,0.00,,,0.00,Wunderground v.1.15,2013-11-05 06:41:00,
2013-11-05 01:43:00,38.7,34.0,30.49,NNW,347,1.0,1.0,83,0.00,,,0.00,Wunderground v.1.15,2013-11-05 06:43:00,
2013-11-05 01:44:00,38.7,34.0,30.49,NNW,347,0.0,1.0,83,0.00,,,0.00,Wunderground v.1.15,2013-11-05 06:44:00,
2013-11-05 01:46:00,38.7,34.0,30.48,North,4,1.0,1.0,83,0.00,,,0.00,Wunderground v.1.15,2013-11-05 06:46:00,
2013-11-05 01:48:00,38.7,34.0,30.48,North,5,1.0,1.0,83,0.00,,,0.00,Wunderground v.1.15,2013-11-05 06:48:00,
2013-11-05 01:51:00,38.7,34.0,30.48,North,5,0.0,1.0,83,0.00,,,0.00,Wunderground v.1.15,2013-11-05 06:51:00,
2013-11-05 01:52:00,38.7,34.0,30.48,NNE,29,2.0,2.0,83,0.00,,,0.00,Wunderground v.1.15,2013-11-05 06:52:00,
2013-11-05 01:53:00,38.6,33.9,30.48,NE,34,0.0,2.0,83,0.00,,,0.00,Wunderground v.1.15,2013-11-05 06:53:00,
2013-11-05 01:57:00,38.6,33.9,30.48,NE,34,0.0,2.0,83,0.00,,,0.00,Wunderground v.1.15,2013-11-05 06:57:00,
2013-11-05 01:58:00,38.7,34.0,30.48,NE,34,0.0,2.0,83,0.00,,,0.00,Wunderground v.1.15,2013-11-05 06:58:00,
2013-11-05 01:59:00,38.7,34.0,30.48,ESE,111,1.0,2.0,83,0.00,,,0.00,Wunderground v.1.15,2013-11-05 06:59:00,
2013-11-05 02:00:00,38.7,34.0,30.48,ESE,112,0.0,0.0,83,0.00,,,0.00,Wunderground v.1.15,2013-11-05 07:00:00,
2013-11-05 02:02:00,38.7,34.0,30.48,NE,34,3.0,3.0,83,0.00,,,0.00,Wunderground v.1.15,2013-11-05 07:02:00,
2013-11-05 02:03:00,38.7,34.0,30.48,NNE,12,1.0,3.0,83,0.00,,,0.00,Wunderground v.1.15,2013-11-05 07:03:00,
2013-11-05 02:04:00,38.7,34.0,30.48,NW,308,0.0,3.0,83,0.00,,,0.00,Wunderground v.1.15,2013-11-05 07:04:00,
2013-11-05 02:05:00,38.7,34.0,30.47,NW,307,0.0,3.0,83,0.00,,,0.00,Wunderground v.1.15,2013-11-05 07:05:00,
2013-11-05 02:07:00,38.7,34.0,30.47,NW,308,0.0,3.0,83,0.00,,,0.00,Wunderground v.1.15,2013-11-05 07:07:00,
2013-11-05 02:08:00,38.7,34.0,30.47,NW,307,0.0,3.0,83,0.00,,,0.00,Wunderground v.1.15,2013-11-05 07:08:00,
2013-11-05 02:09:00,38.7,34.0,30.47,NW,308,0.0,3.0,83,0.00,,,0.00,Wunderground v.1.15,2013-11-05 07:09:00,
2013-11-05 02:10:00,38.6,33.9,30.47,NW,308,0.0,1.0,83,0.00,,,0.00,Wunderground v.1.15,2013-11-05 07:10:00,
2013-11-05 02:11:00,38.6,33.9,30.47,NW,308,0.0,1.0,83,0.00,,,0.00,Wunderground v.1.15,2013-11-05 07:11:00,
2013-11-05 02:12:00,38.6,33.9,30.47,NW,308,0.0,1.0,83,0.00,,,0.00,Wunderground v.1.15,2013-11-05 07:12:00,
2013-11-05 02:14:00,38.5,33.8,30.47,NW,308,0.0,1.0,83,0.00,,,0.00,Wunderground v.1.15,2013-11-05 07:14:00,
2013-11-05 02:15:00,38.5,33.8,30.48,NW,307,0.0,1.0,83,0.00,,,0.00,Wunderground v.1.15,2013-11-05 07:15:00,
2013-11-05 02:16:00,38.5,33.8,30.48,NW,311,0.0,1.0,83,0.00,,,0.00,Wunderground v.1.15,2013-11-05 07:16:00,
2013-11-05 02:18:00,38.4,33.7,30.48,WNW,291,0.0,3.0,83,0.00,,,0.00,Wunderground v.1.15,2013-11-05 07:18:00,
2013-11-05 02:19:00,38.4,33.7,30.48,WNW,291,1.0,3.0,83,0.00,,,0.00,Wunderground v.1.15,2013-11-05 07:19:00,
2013-11-05 02:21:00,38.4,33.7,30.48,WNW,290,0.0,0.0,83,0.00,,,0.00,Wunderground v.1.15,2013-11-05 07:21:00,
2013-11-05 02:22:00,38.4,34.0,30.48,WNW,291,1.0,1.0,84,0.00,,,0.00,Wunderground v.1.15,2013-11-05 07:22:00,
2013-11-05 02:23:00,38.4,34.0,30.48,NNW,334,0.0,2.0,84,0.00,,,0.00,Wunderground v.1.15,2013-11-05 07:23:00,
2013-11-05 02:24:00,38.3,33.9,30.48,NNW,335,0.0,2.0,84,0.00,,,0.00,Wunderground v.1.15,2013-11-05 07:24:00,
2013-11-05 02:25:00,38.3,33.9,30.48,NNW,334,0.0,2.0,84,0.00,,,0.00,Wunderground v.1.15,2013-11-05 07:25:00,
2013-11-05 02:26:00,38.3,33.9,30.48,NNW,334,1.0,2.0,84,0.00,,,0.00,Wunderground v.1.15,2013-11-05 07:26:00,
2013-11-05 02:27:00,38.3,33.9,30.48,NNW,335,0.0,2.0,84,0.00,,,0.00,Wunderground v.1.15,2013-11-05 07:27:00,
2013-11-05 02:28:00,38.2,33.8,30.48,NNW,340,0.0,2.0,84,0.00,,,0.00,Wunderground v.1.15,2013-11-05 07:28:00,
2013-11-05 02:30:00,38.2,33.8,30.47,NNW,340,2.0,2.0,84,0.00,,,0.00,Wunderground v.1.15,2013-11-05 07:30:00,
2013-11-05 02:31:00,38.2,33.8,30.47,North,359,0.0,3.0,84,0.00,,,0.00,Wunderground v.1.15,2013-11-05 07:31:00,
2013-11-05 02:32:00,38.2,33.8,30.47,North,358,0.0,3.0,84,0.00,,,0.00,Wunderground v.1.15,2013-11-05 07:32:00,
2013-11-05 02:33:00,38.1,33.7,30.47,North,359,1.0,3.0,84,0.00,,,0.00,Wunderground v.1.15,2013-11-05 07:33:00,
2013-11-05 02:35:00,38.1,33.7,30.47,NNW,340,1.0,3.0,84,0.00,,,0.00,Wunderground v.1.15,2013-11-05 07:35:00,
2013-11-05 02:36:00,38.1,33.7,30.47,NNW,340,0.0,3.0,84,0.00,,,0.00,Wunderground v.1.15,2013-11-05 07:36:00,
2013-11-05 02:38:00,38.0,33.6,30.47,NNW,340,0.0,3.0,84,0.00,,,0.00,Wunderground v.1.15,2013-11-05 07:38:00,
2013-11-05 02:39:00,38.0,33.6,30.47,NNW,340,0.0,3.0,84,0.00,,,0.00,Wunderground v.1.15,2013-11-05 07:39:00,
2013-11-05 02:40:00,38.0,33.6,30.47,NNW,340,1.0,1.0,84,0.00,,,0.00,Wunderground v.1.15,2013-11-05 07:40:00,
2013-11-05 02:41:00,38.0,33.6,30.47,NNW,340,0.0,1.0,84,0.00,,,0.00,Wunderground v.1.15,2013-11-05 07:41:00,
2013-11-05 02:43:00,37.9,33.8,30.47,NNW,340,0.0,1.0,85,0.00,,,0.00,Wunderground v.1.15,2013-11-05 07:43:00,
2013-11-05 02:44:00,37.9,33.8,30.47,NNW,340,0.0,1.0,85,0.00,,,0.00,Wunderground v.1.15,2013-11-05 07:44:00,
2013-11-05 02:45:00,37.9,33.8,30.47,NNE,29,0.0,4.0,85,0.00,,,0.00,Wunderground v.1.15,2013-11-05 07:45:00,
2013-11-05 02:46:00,37.9,33.8,30.47,NNE,29,0.0,4.0,85,0.00,,,0.00,Wunderground v.1.15,2013-11-05 07:46:00,
2013-11-05 02:47:00,37.9,33.8,30.47,NNE,27,0.0,4.0,85,0.00,,,0.00,Wunderground v.1.15,2013-11-05 07:47:00,
2013-11-05 02:48:00,37.9,33.8,30.47,NNE,29,0.0,4.0,85,0.00,,,0.00,Wunderground v.1.15,2013-11-05 07:48:00,
2013-11-05 02:49:00,37.9,33.8,30.47,NNE,27,0.0,4.0,85,0.00,,,0.00,Wunderground v.1.15,2013-11-05 07:49:00,
2013-11-05 02:50:00,37.9,33.8,30.47,NNE,16,0.0,0.0,85,0.00,,,0.00,Wunderground v.1.15,2013-11-05 07:50:00,
2013-11-05 02:51:00,37.9,33.8,30.47,North,354,1.0,1.0,85,0.00,,,0.00,Wunderground v.1.15,2013-11-05 07:51:00,
2013-11-05 02:53:00,37.9,33.8,30.47,NNW,338,0.0,2.0,85,0.00,,,0.00,Wunderground v.1.15,2013-11-05 07:53:00,
2013-11-05 02:54:00,37.9,33.8,30.46,NNW,337,0.0,2.0,85,0.00,,,0.00,Wunderground v.1.15,2013-11-05 07:54:00,
2013-11-05 02:55:00,38.0,33.9,30.46,NNW,337,0.0,2.0,85,0.00,,,0.00,Wunderground v.1.15,2013-11-05 07:55:00,
2013-11-05 02:56:00,38.0,33.9,30.46,NNW,338,0.0,2.0,85,0.00,,,0.00,Wunderground v.1.15,2013-11-05 07:56:00,
2013-11-05 02:58:00,38.0,33.9,30.46,NNW,338,1.0,2.0,85,0.00,,,0.00,Wunderground v.1.15,2013-11-05 07:58:00,
2013-11-05 02:59:00,38.0,33.9,30.46,NNW,337,0.0,2.0,85,0.00,,,0.00,Wunderground v.1.15,2013-11-05 07:59:00,
2013-11-05 03:00:00,38.0,33.9,30.46,NNW,338,0.0,2.0,85,0.00,,,0.00,Wunderground v.1.15,2013-11-05 08:00:00,
2013-11-05 03:01:00,38.0,33.9,30.47,NNW,338,0.0,0.0,85,0.00,,,0.00,Wunderground v.1.15,2013-11-05 08:01:00,
2013-11-05 03:02:00,38.1,34.0,30.47,NNW,338,0.0,0.0,85,0.00,,,0.00,Wunderground v.1.15,2013-11-05 08:02:00,
2013-11-05 03:04:00,38.1,34.0,30.47,NNW,338,1.0,1.0,85,0.00,,,0.00,Wunderground v.1.15,2013-11-05 08:04:00,
2013-11-05 03:05:00,38.1,34.0,30.47,NNW,338,0.0,1.0,85,0.00,,,0.00,Wunderground v.1.15,2013-11-05 08:05:00,
2013-11-05 03:06:00,38.1,34.0,30.47,NNW,336,0.0,1.0,85,0.00,,,0.00,Wunderground v.1.15,2013-11-05 08:06:00,
2013-11-05 03:07:00,38.1,34.0,30.47,NNW,336,0.0,1.0,85,0.00,,,0.00,Wunderground v.1.15,2013-11-05 08:07:00,
2013-11-05 03:09:00,38.1,34.0,30.48,NNW,336,0.0,1.0,85,0.00,,,0.00,Wunderground v.1.15,2013-11-05 08:09:00,
2013-11-05 03:10:00,38.1,34.0,30.48,NNW,335,0.0,1.0,85,0.00,,,0.00,Wunderground v.1.15,2013-11-05 08:10:00,
2013-11-05 03:12:00,38.1,34.0,30.48,NNW,345,1.0,1.0,85,0.00,,,0.00,Wunderground v.1.15,2013-11-05 08:12:00,
2013-11-05 03:14:00,38.1,34.0,30.48,NW,321,0.0,1.0,85,0.00,,,0.00,Wunderground v.1.15,2013-11-05 08:14:00,
2013-11-05 03:15:00,38.1,34.0,30.47,NW,321,0.0,1.0,85,0.00,,,0.00,Wunderground v.1.15,2013-11-05 08:15:00,
2013-11-05 03:17:00,38.1,34.0,30.47,NW,321,0.0,1.0,85,0.00,,,0.00,Wunderground v.1.15,2013-11-05 08:17:00,
2013-11-05 03:18:00,38.1,34.0,30.47,NW,320,0.0,1.0,85,0.00,,,0.00,Wunderground v.1.15,2013-11-05 08:18:00,
2013-11-05 03:19:00,38.1,34.0,30.47,NW,324,1.0,1.0,85,0.00,,,0.00,Wunderground v.1.15,2013-11-05 08:19:00,
2013-11-05 03:20:00,38.1,34.0,30.47,NW,325,0.0,0.0,85,0.00,,,0.00,Wunderground v.1.15,2013-11-05 08:20:00,
2013-11-05 03:21:00,38.1,34.0,30.47,NW,325,0.0,0.0,85,0.00,,,0.00,Wunderground v.1.15,2013-11-05 08:21:00,
2013-11-05 03:22:00,38.1,34.0,30.47,NW,308,0.0,1.0,85,0.00,,,0.00,Wunderground v.1.15,2013-11-05 08:22:00,
2013-11-05 03:23:00,38.1,34.0,30.47,NW,308,0.0,1.0,85,0.00,,,0.00,Wunderground v.1.15,2013-11-05 08:23:00,
2013-11-05 03:24:00,38.1,34.0,30.47,NW,307,0.0,1.0,85,0.00,,,0.00,Wunderground v.1.15,2013-11-05 08:24:00,
2013-11-05 03:26:00,38.1,34.0,30.47,NW,308,0.0,1.0,85,0.00,,,0.00,Wunderground v.1.15,2013-11-05 08:26:00,
2013-11-05 03:27:00,38.1,34.0,30.47,NW,307,0.0,1.0,85,0.00,,,0.00,Wunderground v.1.15,2013-11-05 08:27:00,
2013-11-05 03:28:00,38.1,34.0,30.46,NW,307,0.0,1.0,85,0.00,,,0.00,Wunderground v.1.15,2013-11-05 08:28:00,
2013-11-05 03:30:00,38.1,34.0,30.46,NW,307,0.0,0.0,85,0.00,,,0.00,Wunderground v.1.15,2013-11-05 08:30:00,
2013-11-05 03:31:00,38.2,34.1,30.46,NW,307,0.0,0.0,85,0.00,,,0.00,Wunderground v.1.15,2013-11-05 08:31:00,
2013-11-05 03:32:00,38.1,34.0,30.46,NW,307,0.0,0.0,85,0.00,,,0.00,Wunderground v.1.15,2013-11-05 08:32:00,
2013-11-05 03:33:00,38.1,34.0,30.46,NW,314,0.0,2.0,85,0.00,,,0.00,Wunderground v.1.15,2013-11-05 08:33:00,
2013-11-05 03:34:00,38.1,34.0,30.46,NW,314,0.0,2.0,85,0.00,,,0.00,Wunderground v.1.15,2013-11-05 08:34:00,
2013-11-05 03:36:00,38.2,34.1,30.46,NW,323,0.0,2.0,85,0.00,,,0.00,Wunderground v.1.15,2013-11-05 08:36:00,
2013-11-05 03:37:00,38.2,34.1,30.46,NW,323,0.0,2.0,85,0.00,,,0.00,Wunderground v.1.15,2013-11-05 08:37:00,
2013-11-05 03:38:00,38.2,34.1,30.46,NW,323,0.0,2.0,85,0.00,,,0.00,Wunderground v.1.15,2013-11-05 08:38:00,
2013-11-05 03:40:00,38.3,34.2,30.46,NW,323,1.0,2.0,85,0.00,,,0.00,Wunderground v.1.15,2013-11-05 08:40:00,
2013-11-05 03:41:00,38.3,34.2,30.46,NW,323,0.0,0.0,85,0.00,,,0.00,Wunderground v.1.15,2013-11-05 08:41:00,
2013-11-05 03:42:00,38.3,34.2,30.46,NW,323,0.0,0.0,85,0.00,,,0.00,Wunderground v.1.15,2013-11-05 08:42:00,
2013-11-05 03:43:00,38.3,34.2,30.46,NW,326,0.0,1.0,85,0.00,,,0.00,Wunderground v.1.15,2013-11-05 08:43:00,
2013-11-05 03:45:00,38.3,34.2,30.46,NW,326,0.0,1.0,85,0.00,,,0.00,Wunderground v.1.15,2013-11-05 08:45:00,
2013-11-05 03:46:00,38.3,34.2,30.46,NNW,344,2.0,2.0,85,0.00,,,0.00,Wunderground v.1.15,2013-11-05 08:46:00,
2013-11-05 03:47:00,38.3,34.2,30.46,North,4,0.0,2.0,85,0.00,,,0.00,Wunderground v.1.15,2013-11-05 08:47:00,
2013-11-05 03:48:00,38.3,34.2,30.46,North,3,0.0,2.0,85,0.00,,,0.00,Wunderground v.1.15,2013-11-05 08:48:00,
2013-11-05 03:49:00,38.4,34.3,30.46,ENE,60,0.0,2.0,85,0.00,,,0.00,Wunderground v.1.15,2013-11-05 08:49:00,
2013-11-05 03:50:00,38.4,34.3,30.46,North,6,0.0,0.0,85,0.00,,,0.00,Wunderground v.1.15,2013-11-05 08:50:00,
2013-11-05 03:51:00,38.4,34.3,30.45,NNE,14,0.0,0.0,85,0.00,,,0.00,Wunderground v.1.15,2013-11-05 08:51:00,
2013-11-05 03:52:00,38.5,34.4,30.45,North,360,2.0,2.0,85,0.00,,,0.00,Wunderground v.1.15,2013-11-05 08:52:00,
2013-11-05 03:53:00,38.5,34.4,30.45,North,4,2.0,2.0,85,0.00,,,0.00,Wunderground v.1.15,2013-11-05 08:53:00,
2013-11-05 03:54:00,38.5,34.4,30.45,NNW,331,1.0,2.0,85,0.00,,,0.00,Wunderground v.1.15,2013-11-05 08:54:00,
2013-11-05 03:55:00,38.5,34.4,30.45,NNE,18,1.0,2.0,85,0.00,,,0.00,Wunderground v.1.15,2013-11-05 08:55:00,
2013-11-05 03:56:00,38.6,34.5,30.45,NNE,18,1.0,2.0,85,0.00,,,0.00,Wunderground v.1.15,2013-11-05 08:56:00,
2013-11-05 03:58:00,38.7,34.6,30.45,NNW,348,0.0,2.0,85,0.00,,,0.00,Wunderground v.1.15,2013-11-05 08:58:00,
2013-11-05 04:00:00,38.7,34.6,30.45,North,349,0.0,1.0,85,0.00,,,0.00,Wunderground v.1.15,2013-11-05 09:00:00,
2013-11-05 04:01:00,38.7,34.6,30.45,North,349,0.0,1.0,85,0.00,,,0.00,Wunderground v.1.15,2013-11-05 09:01:00,
2013-11-05 04:02:00,38.7,34.6,30.45,NNW,348,1.0,1.0,85,0.00,,,0.00,Wunderground v.1.15,2013-11-05 09:02:00,
2013-11-05 04:03:00,38.7,34.6,30.45,NNW,330,0.0,2.0,85,0.00,,,0.00,Wunderground v.1.15,2013-11-05 09:03:00,
2013-11-05 04:05:00,38.7,34.6,30.45,North,1,1.0,2.0,85,0.00,,,0.00,Wunderground v.1.15,2013-11-05 09:05:00,
2013-11-05 04:07:00,38.6,34.5,30.45,NW,326,1.0,2.0,85,0.00,,,0.00,Wunderground v.1.15,2013-11-05 09:07:00,
2013-11-05 04:08:00,38.6,34.5,30.46,NNW,328,0.0,2.0,85,0.00,,,0.00,Wunderground v.1.15,2013-11-05 09:08:00,
2013-11-05 04:09:00,38.6,34.5,30.46,NW,326,0.0,2.0,85,0.00,,,0.00,Wunderground v.1.15,2013-11-05 09:09:00,
2013-11-05 04:10:00,38.6,34.5,30.46,North,3,1.0,1.0,85,0.00,,,0.00,Wunderground v.1.15,2013-11-05 09:10:00,
2013-11-05 04:12:00,38.6,34.5,30.46,North,8,1.0,1.0,85,0.00,,,0.00,Wunderground v.1.15,2013-11-05 09:12:00,
2013-11-05 04:13:00,38.6,34.5,30.46,North,350,0.0,1.0,85,0.00,,,0.00,Wunderground v.1.15,2013-11-05 09:13:00,
2013-11-05 04:14:00,38.6,34.5,30.46,North,350,0.0,1.0,85,0.00,,,0.00,Wunderground v.1.15,2013-11-05 09:14:00,
2013-11-05 04:15:00,38.6,34.5,30.46,North,350,0.0,1.0,85,0.00,,,0.00,Wunderground v.1.15,2013-11-05 09:15:00,
2013-11-05 04:17:00,38.6,34.5,30.46,North,351,0.0,1.0,85,0.00,,,0.00,Wunderground v.1.15,2013-11-05 09:17:00,
2013-11-05 04:18:00,38.6,34.5,30.46,North,351,0.0,1.0,85,0.00,,,0.00,Wunderground v.1.15,2013-11-05 09:18:00,
2013-11-05 04:20:00,38.5,34.4,30.46,North,351,1.0,1.0,85,0.00,,,0.00,Wunderground v.1.15,2013-11-05 09:20:00,
2013-11-05 04:22:00,38.5,34.4,30.46,North,351,0.0,1.0,85,0.00,,,0.00,Wunderground v.1.15,2013-11-05 09:22:00,
2013-11-05 04:23:00,38.5,34.4,30.46,North,350,0.0,1.0,85,0.00,,,0.00,Wunderground v.1.15,2013-11-05 09:23:00,
2013-11-05 04:24:00,38.5,34.4,30.46,North,350,0.0,1.0,85,0.00,,,0.00,Wunderground v.1.15,2013-11-05 09:24:00,
2013-11-05 04:25:00,38.5,34.4,30.46,NNW,345,1.0,1.0,85,0.00,,,0.00,Wunderground v.1.15,2013-11-05 09:25:00,
2013-11-05 04:26:00,38.5,34.4,30.46,NNW,346,1.0,1.0,85,0.00,,,0.00,Wunderground v.1.15,2013-11-05 09:26:00,
2013-11-05 04:27:00,38.5,34.4,30.46,NNW,340,1.0,1.0,85,0.00,,,0.00,Wunderground v.1.15,2013-11-05 09:27:00,
2013-11-05 04:28:00,38.5,34.4,30.46,WNW,285,1.0,3.0,85,0.00,,,0.00,Wunderground v.1.15,2013-11-05 09:28:00,
2013-11-05 04:29:00,38.5,34.4,30.46,WNW,285,0.0,3.0,85,0.00,,,0.00,Wunderground v.1.15,2013-11-05 09:29:00,
2013-11-05 04:30:00,38.5,34.4,30.46,WNW,285,1.0,1.0,85,0.00,,,0.00,Wunderground v.1.15,2013-11-05 09:30:00,
2013-11-05 04:31:00,38.5,34.4,30.46,WNW,285,1.0,1.0,85,0.00,,,0.00,Wunderground v.1.15,2013-11-05 09:31:00,
2013-11-05 04:32:00,38.5,34.4,30.46,SSE,159,1.0,1.0,85,0.00,,,0.00,Wunderground v.1.15,2013-11-05 09:32:00,
2013-11-05 04:34:00,38.5,34.7,30.46,NNW,338,0.0,2.0,86,0.00,,,0.00,Wunderground v.1.15,2013-11-05 09:34:00,
2013-11-05 04:35:00,38.5,34.7,30.46,NNW,341,2.0,2.0,86,0.00,,,0.00,Wunderground v.1.15,2013-11-05 09:35:00,
2013-11-05 04:36:00,38.5,34.4,30.46,North,352,0.0,2.0,85,0.00,,,0.00,Wunderground v.1.15,2013-11-05 09:36:00,
2013-11-05 04:37:00,38.5,34.4,30.46,North,6,1.0,2.0,85,0.00,,,0.00,Wunderground v.1.15,2013-11-05 09:37:00,
2013-11-05 04:39:00,38.5,34.4,30.46,North,6,1.0,2.0,85,0.00,,,0.00,Wunderground v.1.15,2013-11-05 09:39:00,
2013-11-05 04:41:00,38.5,34.7,30.46,ENE,70,0.0,1.0,86,0.00,,,0.00,Wunderground v.1.15,2013-11-05 09:41:00,
2013-11-05 04:42:00,38.5,34.7,30.46,ENE,69,0.0,1.0,86,0.00,,,0.00,Wunderground v.1.15,2013-11-05 09:42:00,
2013-11-05 04:43:00,38.5,34.7,30.46,ENE,69,0.0,1.0,86,0.00,,,0.00,Wunderground v.1.15,2013-11-05 09:43:00,
2013-11-05 04:44:00,38.5,34.7,30.46,NNW,333,0.0,1.0,86,0.00,,,0.00,Wunderground v.1.15,2013-11-05 09:44:00,
2013-11-05 04:45:00,38.5,34.7,30.46,NNW,333,0.0,1.0,86,0.00,,,0.00,Wunderground v.1.15,2013-11-05 09:45:00,
2013-11-05 04:46:00,38.5,34.7,30.46,NNW,338,1.0,1.0,86,0.00,,,0.00,Wunderground v.1.15,2013-11-05 09:46:00,
2013-11-05 04:47:00,38.5,34.7,30.46,NNW,338,0.0,1.0,86,0.00,,,0.00,Wunderground v.1.15,2013-11-05 09:47:00,
2013-11-05 04:48:00,38.5,34.7,30.46,NNW,338,0.0,1.0,86,0.00,,,0.00,Wunderground v.1.15,2013-11-05 09:48:00,
2013-11-05 04:49:00,38.5,34.7,30.46,NNW,336,1.0,1.0,86,0.00,,,0.00,Wunderground v.1.15,2013-11-05 09:49:00,
2013-11-05 04:50:00,38.5,34.7,30.46,NNW,335,0.0,0.0,86,0.00,,,0.00,Wunderground v.1.15,2013-11-05 09:50:00,
2013-11-05 04:51:00,38.5,34.7,30.46,NNW,335,1.0,1.0,86,0.00,,,0.00,Wunderground v.1.15,2013-11-05 09:51:00,
2013-11-05 04:52:00,38.5,34.7,30.46,NNW,335,1.0,1.0,86,0.00,,,0.00,Wunderground v.1.15,2013-11-05 09:52:00,
2013-11-05 04:54:00,38.5,34.7,30.47,NNW,338,0.0,1.0,86,0.00,,,0.00,Wunderground v.1.15,2013-11-05 09:54:00,
2013-11-05 04:55:00,38.4,34.6,30.47,NNW,347,1.0,3.0,86,0.00,,,0.00,Wunderground v.1.15,2013-11-05 09:55:00,
2013-11-05 04:56:00,38.4,34.6,30.47,NNW,347,0.0,3.0,86,0.00,,,0.00,Wunderground v.1.15,2013-11-05 09:56:00,
2013-11-05 04:57:00,38.4,34.6,30.47,NNW,347,0.0,3.0,86,0.00,,,0.00,Wunderground v.1.15,2013-11-05 09:57:00,
2013-11-05 04:58:00,38.4,34.6,30.47,North,7,1.0,3.0,86,0.00,,,0.00,Wunderground v.1.15,2013-11-05 09:58:00,
2013-11-05 04:59:00,38.4,34.6,30.47,North,8,1.0,3.0,86,0.00,,,0.00,Wunderground v.1.15,2013-11-05 09:59:00,
2013-11-05 05:00:00,38.4,34.6,30.47,North,359,1.0,1.0,86,0.00,,,0.00,Wunderground v.1.15,2013-11-05 10:00:00,
2013-11-05 05:01:00,38.4,34.6,30.47,NNW,345,2.0,2.0,86,0.00,,,0.00,Wunderground v.1.15,2013-11-05 10:01:00,
2013-11-05 05:02:00,38.4,34.6,30.47,North,350,1.0,4.0,86,0.00,,,0.00,Wunderground v.1.15,2013-11-05 10:02:00,
2013-11-05 05:03:00,38.4,34.6,30.47,NNW,328,1.0,4.0,86,0.00,,,0.00,Wunderground v.1.15,2013-11-05 10:03:00,
2013-11-05 05:04:00,38.4,34.6,30.47,NNW,327,0.0,4.0,86,0.00,,,0.00,Wunderground v.1.15,2013-11-05 10:04:00,
2013-11-05 05:05:00,38.4,34.6,30.47,NNW,328,0.0,4.0,86,0.00,,,0.00,Wunderground v.1.15,2013-11-05 10:05:00,
2013-11-05 05:06:00,38.3,34.5,30.47,North,11,0.0,4.0,86,0.00,,,0.00,Wunderground v.1.15,2013-11-05 10:06:00,
2013-11-05 05:07:00,38.4,34.6,30.48,North,11,1.0,4.0,86,0.00,,,0.00,Wunderground v.1.15,2013-11-05 10:07:00,
2013-11-05 05:08:00,38.4,34.6,30.47,North,11,0.0,4.0,86,0.00,,,0.00,Wunderground v.1.15,2013-11-05 10:08:00,
2013-11-05 05:09:00,38.4,34.6,30.48,North,11,1.0,4.0,86,0.00,,,0.00,Wunderground v.1.15,2013-11-05 10:09:00,
2013-11-05 05:10:00,38.4,34.6,30.48,NNE,16,3.0,3.0,86,0.00,,,0.00,Wunderground v.1.15,2013-11-05 10:10:00,
2013-11-05 05:11:00,38.3,34.5,30.47,NNW,340,0.0,3.0,86,0.00,,,0.00,Wunderground v.1.15,2013-11-05 10:11:00,
2013-11-05 05:12:00,38.4,34.6,30.47,NNW,340,0.0,3.0,86,0.00,,,0.00,Wunderground v.1.15,2013-11-05 10:12:00,
2013-11-05 05:13:00,38.4,34.6,30.47,NNW,340,0.0,3.0,86,0.00,,,0.00,Wunderground v.1.15,2013-11-05 10:13:00,
2013-11-05 05:14:00,38.3,34.5,30.47,North,8,0.0,3.0,86,0.00,,,0.00,Wunderground v.1.15,2013-11-05 10:14:00,
2013-11-05 05:15:00,38.4,34.6,30.47,North,8,0.0,3.0,86,0.00,,,0.00,Wunderground v.1.15,2013-11-05 10:15:00,
2013-11-05 05:16:00,38.4,34.6,30.47,WNW,283,3.0,3.0,86,0.00,,,0.00,Wunderground v.1.15,2013-11-05 10:16:00,
2013-11-05 05:17:00,38.4,34.6,30.47,North,358,1.0,3.0,86,0.00,,,0.00,Wunderground v.1.15,2013-11-05 10:17:00,
2013-11-05 05:18:00,38.4,34.6,30.47,North,358,1.0,3.0,86,0.00,,,0.00,Wunderground v.1.15,2013-11-05 10:18:00,
2013-11-05 05:20:00,38.4,34.6,30.48,North,358,0.0,3.0,86,0.00,,,0.00,Wunderground v.1.15,2013-11-05 10:20:00,
2013-11-05 05:21:00,38.4,34.6,30.48,North,359,0.0,1.0,86,0.00,,,0.00,Wunderground v.1.15,2013-11-05 10:21:00,
2013-11-05 05:22:00,38.4,34.6,30.48,NNW,338,1.0,3.0,86,0.00,,,0.00,Wunderground v.1.15,2013-11-05 10:22:00,
2013-11-05 05:23:00,38.3,34.5,30.48,NNW,338,0.0,3.0,86,0.00,,,0.00,Wunderground v.1.15,2013-11-05 10:23:00,
2013-11-05 05:25:00,38.3,34.5,30.47,WNW,283,1.0,3.0,86,0.00,,,0.00,Wunderground v.1.15,2013-11-05 10:25:00,
2013-11-05 05:26:00,38.3,34.5,30.48,West,269,0.0,3.0,86,0.00,,,0.00,Wunderground v.1.15,2013-11-05 10:26:00,
2013-11-05 05:27:00,38.3,34.5,30.48,West,269,0.0,3.0,86,0.00,,,0.00,Wunderground v.1.15,2013-11-05 10:27:00,
2013-11-05 05:28:00,38.3,34.5,30.48,WNW,283,1.0,3.0,86,0.00,,,0.00,Wunderground v.1.15,2013-11-05 10:28:00,
2013-11-05 05:29:00,38.3,34.5,30.48,NW,305,0.0,3.0,86,0.00,,,0.00,Wunderground v.1.15,2013-11-05 10:29:00,
2013-11-05 05:30:00,38.3,34.5,30.48,North,7,0.0,1.0,86,0.00,,,0.00,Wunderground v.1.15,2013-11-05 10:30:00,
2013-11-05 05:32:00,38.3,34.5,30.48,North,6,0.0,1.0,86,0.00,,,0.00,Wunderground v.1.15,2013-11-05 10:32:00,
2013-11-05 05:33:00,38.3,34.5,30.48,North,6,1.0,1.0,86,0.00,,,0.00,Wunderground v.1.15,2013-11-05 10:33:00,
2013-11-05 05:34:00,38.3,34.5,30.48,NNE,16,2.0,2.0,86,0.00,,,0.00,Wunderground v.1.15,2013-11-05 10:34:00,
2013-11-05 05:35:00,38.3,34.5,30.48,NNE,16,0.0,2.0,86,0.00,,,0.00,Wunderground v.1.15,2013-11-05 10:35:00,
2013-11-05 05:37:00,38.3,34.5,30.48,North,349,1.0,3.0,86,0.00,,,0.00,Wunderground v.1.15,2013-11-05 10:37:00,
2013-11-05 05:38:00,38.3,34.5,30.48,North,349,1.0,3.0,86,0.00,,,0.00,Wunderground v.1.15,2013-11-05 10:38:00,
2013-11-05 05:39:00,38.3,34.5,30.48,NNE,23,1.0,3.0,86,0.00,,,0.00,Wunderground v.1.15,2013-11-05 10:39:00,
2013-11-05 05:40:00,38.3,34.5,30.48,NNW,333,1.0,2.0,86,0.00,,,0.00,Wunderground v.1.15,2013-11-05 10:40:00,
2013-11-05 05:41:00,38.3,34.5,30.48,NNW,333,1.0,2.0,86,0.00,,,0.00,Wunderground v.1.15,2013-11-05 10:41:00,
2013-11-05 05:42:00,38.3,34.5,30.48,NNW,338,1.0,2.0,86,0.00,,,0.00,Wunderground v.1.15,2013-11-05 10:42:00,
2013-11-05 05:43:00,38.3,34.5,30.48,NNW,337,0.0,2.0,86,0.00,,,0.00,Wunderground v.1.15,2013-11-05 10:43:00,
2013-11-05 05:44:00,38.3,34.5,30.48,NNW,340,1.0,2.0,86,0.00,,,0.00,Wunderground v.1.15,2013-11-05 10:44:00,
2013-11-05 05:45:00,38.3,34.5,30.48,NNW,340,0.0,2.0,86,0.00,,,0.00,Wunderground v.1.15,2013-11-05 10:45:00,
2013-11-05 05:46:00,38.3,34.5,30.48,NW,322,2.0,3.0,86,0.00,,,0.00,Wunderground v.1.15,2013-11-05 10:46:00,
2013-11-05 05:47:00,38.3,34.5,30.48,NE,37,2.0,3.0,86,0.00,,,0.00,Wunderground v.1.15,2013-11-05 10:47:00,
2013-11-05 05:48:00,38.3,34.5,30.48,NNE,20,4.0,4.0,86,0.00,,,0.00,Wunderground v.1.15,2013-11-05 10:48:00,
2013-11-05 05:49:00,38.3,34.5,30.48,North,356,1.0,4.0,86,0.00,,,0.00,Wunderground v.1.15,2013-11-05 10:49:00,
2013-11-05 05:50:00,38.3,34.5,30.48,North,356,1.0,1.0,86,0.00,,,0.00,Wunderground v.1.15,2013-11-05 10:50:00,
2013-11-05 05:51:00,38.3,34.5,30.48,SW,232,1.0,1.0,86,0.00,,,0.00,Wunderground v.1.15,2013-11-05 10:51:00,
2013-11-05 05:52:00,38.4,34.6,30.48,ESE,107,1.0,1.0,86,0.00,,,0.00,Wunderground v.1.15,2013-11-05 10:52:00,
2013-11-05 05:53:00,38.4,34.6,30.48,North,349,1.0,6.0,86,0.00,,,0.00,Wunderground v.1.15,2013-11-05 10:53:00,
2013-11-05 05:54:00,38.4,34.6,30.48,NNE,16,1.0,6.0,86,0.00,,,0.00,Wunderground v.1.15,2013-11-05 10:54:00,
2013-11-05 05:55:00,38.5,34.7,30.48,NNE,18,1.0,6.0,86,0.00,,,0.00,Wunderground v.1.15,2013-11-05 10:55:00,
2013-11-05 05:56:00,38.5,34.7,30.48,North,7,2.0,6.0,86,0.00,,,0.00,Wunderground v.1.15,2013-11-05 10:56:00,
2013-11-05 05:57:00,38.6,34.8,30.48,ENE,61,1.0,6.0,86,0.00,,,0.00,Wunderground v.1.15,2013-11-05 10:57:00,
2013-11-05 05:58:00,38.6,34.8,30.48,NNE,32,1.0,6.0,86,0.00,,,0.00,Wunderground v.1.15,2013-11-05 10:58:00,
2013-11-05 06:00:00,38.7,34.9,30.48,North,11,2.0,5.0,86,0.00,,,0.00,Wunderground v.1.15,2013-11-05 11:00:00,
2013-11-05 06:01:00,38.7,34.6,30.48,West,264,1.0,5.0,85,0.00,,,0.00,Wunderground v.1.15,2013-11-05 11:01:00,
2013-11-05 06:02:00,38.8,34.7,30.48,NNW,343,2.0,5.0,85,0.00,,,0.00,Wunderground v.1.15,2013-11-05 11:02:00,
2013-11-05 06:03:00,38.9,34.8,30.48,NNE,33,2.0,5.0,85,0.00,,,0.00,Wunderground v.1.15,2013-11-05 11:03:00,
2013-11-05 06:05:00,39.0,34.9,30.48,NNE,33,2.0,5.0,85,0.00,,,0.00,Wunderground v.1.15,2013-11-05 11:05:00,
2013-11-05 06:06:00,39.0,34.9,30.48,NNE,16,2.0,5.0,85,0.00,,,0.00,Wunderground v.1.15,2013-11-05 11:06:00,
2013-11-05 06:07:00,39.1,35.0,30.48,ENE,58,0.0,5.0,85,0.00,,,0.00,Wunderground v.1.15,2013-11-05 11:07:00,
2013-11-05 06:08:00,39.1,35.0,30.48,ENE,58,0.0,5.0,85,0.00,,,0.00,Wunderground v.1.15,2013-11-05 11:08:00,
2013-11-05 06:09:00,39.1,35.0,30.48,NNE,24,1.0,5.0,85,0.00,,,0.00,Wunderground v.1.15,2013-11-05 11:09:00,
2013-11-05 06:10:00,39.2,35.1,30.48,NNE,29,0.0,1.0,85,0.00,,,0.00,Wunderground v.1.15,2013-11-05 11:10:00,
2013-11-05 06:11:00,39.2,35.1,30.48,NNW,340,1.0,1.0,85,0.00,,,0.00,Wunderground v.1.15,2013-11-05 11:11:00,
2013-11-05 06:12:00,39.2,35.1,30.48,NNW,343,1.0,1.0,85,0.00,,,0.00,Wunderground v.1.15,2013-11-05 11:12:00,
2013-11-05 06:13:00,39.3,35.2,30.48,NNE,20,0.0,1.0,85,0.00,,,0.00,Wunderground v.1.15,2013-11-05 11:13:00,
2013-11-05 06:14:00,39.3,35.2,30.48,NNE,20,1.0,1.0,85,0.00,,,0.00,Wunderground v.1.15,2013-11-05 11:14:00,
2013-11-05 06:16:00,39.4,35.3,30.48,NNE,24,1.0,1.0,85,0.00,,,0.00,Wunderground v.1.15,2013-11-05 11:16:00,
2013-11-05 06:17:00,39.4,35.3,30.48,NNE,25,0.0,1.0,85,0.00,,,0.00,Wunderground v.1.15,2013-11-05 11:17:00,
2013-11-05 06:18:00,39.5,35.4,30.48,NNE,24,0.0,1.0,85,0.00,,,0.00,Wunderground v.1.15,2013-11-05 11:18:00,
2013-11-05 06:19:00,39.5,35.4,30.48,North,354,1.0,2.0,85,0.00,,,0.00,Wunderground v.1.15,2013-11-05 11:19:00,
2013-11-05 06:21:00,39.6,35.2,30.48,North,5,1.0,4.0,84,0.00,,,0.00,Wunderground v.1.15,2013-11-05 11:21:00,
2013-11-05 06:22:00,39.6,35.2,30.48,NW,309,1.0,4.0,84,0.00,,,0.00,Wunderground v.1.15,2013-11-05 11:22:00,
2013-11-05 06:23:00,39.6,35.2,30.48,NW,310,1.0,4.0,84,0.00,,,0.00,Wunderground v.1.15,2013-11-05 11:23:00,
2013-11-05 06:24:00,39.7,35.3,30.48,NW,323,2.0,4.0,84,0.00,,,0.00,Wunderground v.1.15,2013-11-05 11:24:00,
2013-11-05 06:26:00,39.7,35.3,30.48,North,350,0.0,4.0,84,0.00,,,0.00,Wunderground v.1.15,2013-11-05 11:26:00,
2013-11-05 06:27:00,39.8,35.4,30.48,North,352,1.0,4.0,84,0.00,,,0.00,Wunderground v.1.15,2013-11-05 11:27:00,
2013-11-05 06:29:00,39.8,35.4,30.49,North,353,0.0,4.0,84,0.00,,,0.00,Wunderground v.1.15,2013-11-05 11:29:00,
2013-11-05 06:30:00,39.8,35.4,30.48,North,359,1.0,4.0,84,0.00,,,0.00,Wunderground v.1.15,2013-11-05 11:30:00,
2013-11-05 06:32:00,39.9,35.5,30.48,North,11,2.0,2.0,84,0.00,,,0.00,Wunderground v.1.15,2013-11-05 11:32:00,
2013-11-05 06:34:00,40.0,35.6,30.48,NNE,15,0.0,2.0,84,0.00,,,0.00,Wunderground v.1.15,2013-11-05 11:34:00,
2013-11-05 06:35:00,40.0,35.6,30.48,NNE,24,1.0,2.0,84,0.00,,,0.00,Wunderground v.1.15,2013-11-05 11:35:00,
2013-11-05 06:37:00,40.1,35.7,30.48,North,8,1.0,3.0,84,0.00,,,0.00,Wunderground v.1.15,2013-11-05 11:37:00,
2013-11-05 06:38:00,40.2,35.8,30.48,NNE,18,0.0,3.0,84,0.00,,,0.00,Wunderground v.1.15,2013-11-05 11:38:00,
2013-11-05 06:39:00,40.2,35.8,30.48,NNE,18,1.0,3.0,84,0.00,,,0.00,Wunderground v.1.15,2013-11-05 11:39:00,
2013-11-05 06:40:00,40.3,35.8,30.48,NNE,18,0.0,1.0,84,0.00,,,0.00,Wunderground v.1.15,2013-11-05 11:40:00,
2013-11-05 06:42:00,40.4,35.6,30.48,NNE,24,1.0,6.0,83,0.00,,,0.00,Wunderground v.1.15,2013-11-05 11:42:00,
2013-11-05 06:43:00,40.4,35.6,30.48,NNW,346,1.0,6.0,83,0.00,,,0.00,Wunderground v.1.15,2013-11-05 11:43:00,
2013-11-05 06:44:00,40.4,35.6,30.48,NNW,345,1.0,6.0,83,0.00,,,0.00,Wunderground v.1.15,2013-11-05 11:44:00,
2013-11-05 06:45:00,40.4,35.6,30.48,North,4,0.0,6.0,83,0.00,,,0.00,Wunderground v.1.15,2013-11-05 11:45:00,
2013-11-05 06:48:00,40.5,35.7,30.48,North,350,1.0,6.0,83,0.00,,,0.00,Wunderground v.1.15,2013-11-05 11:48:00,
2013-11-05 06:49:00,40.6,35.8,30.48,NNE,25,1.0,6.0,83,0.00,,,0.00,Wunderground v.1.15,2013-11-05 11:49:00,
2013-11-05 06:50:00,40.6,35.8,30.48,NNE,18,2.0,2.0,83,0.00,,,0.00,Wunderground v.1.15,2013-11-05 11:50:00,
2013-11-05 06:51:00,40.6,35.8,30.48,North,5,2.0,2.0,83,0.00,,,0.00,Wunderground v.1.15,2013-11-05 11:51:00,
2013-11-05 06:53:00,40.7,35.9,30.48,NNE,19,3.0,4.0,83,0.00,,,0.00,Wunderground v.1.15,2013-11-05 11:53:00,
2013-11-05 06:54:00,40.7,35.9,30.48,NNE,30,1.0,4.0,83,0.00,,,0.00,Wunderground v.1.15,2013-11-05 11:54:00,
2013-11-05 06:55:00,40.8,36.0,30.48,NNE,33,1.0,4.0,83,0.00,,,0.00,Wunderground v.1.15,2013-11-05 11:55:00,
2013-11-05 06:56:00,40.8,36.0,30.48,NNW,337,1.0,4.0,83,0.00,,,0.00,Wunderground v.1.15,2013-11-05 11:56:00,
2013-11-05 06:59:00,40.9,36.1,30.48,NE,40,1.0,4.0,83,0.00,,,0.00,Wunderground v.1.15,2013-11-05 11:59:00,
2013-11-05 07:00:00,40.9,36.1,30.48,ENE,68,1.0,3.0,83,0.00,,,0.00,Wunderground v.1.15,2013-11-05 12:00:00,
2013-11-05 07:01:00,40.9,36.1,30.48,East,87,0.0,3.0,83,0.00,,,0.00,Wunderground v.1.15,2013-11-05 12:01:00,
2013-11-05 07:04:00,41.0,36.2,30.48,North,356,0.0,3.0,83,0.00,,,0.00,Wunderground v.1.15,2013-11-05 12:04:00,
2013-11-05 07:05:00,40.9,36.1,30.48,NNW,342,1.0,3.0,83,0.00,,,0.00,Wunderground v.1.15,2013-11-05 12:05:00,
2013-11-05 07:07:00,41.0,35.9,30.48,NNW,347,0.0,3.0,82,0.00,,,0.00,Wunderground v.1.15,2013-11-05 12:07:00,
2013-11-05 07:09:00,41.1,36.3,30.48,NNE,30,2.0,3.0,83,0.00,,,0.00,Wunderground v.1.15,2013-11-05 12:09:00,
2013-11-05 07:10:00,41.1,36.3,30.48,NNE,30,1.0,1.0,83,0.00,,,0.00,Wunderground v.1.15,2013-11-05 12:10:00,
2013-11-05 07:11:00,41.1,36.3,30.48,North,357,1.0,2.0,83,0.00,,,0.00,Wunderground v.1.15,2013-11-05 12:11:00,
2013-11-05 07:12:00,41.2,36.4,30.48,WSW,237,1.0,2.0,83,0.00,,,0.00,Wunderground v.1.15,2013-11-05 12:12:00,
2013-11-05 07:14:00,41.2,36.1,30.48,North,6,1.0,4.0,82,0.00,,,0.00,Wunderground v.1.15,2013-11-05 12:14:00,
2013-11-05 07:15:00,41.2,36.1,30.48,NNE,24,2.0,4.0,82,0.00,,,0.00,Wunderground v.1.15,2013-11-05 12:15:00,
2013-11-05 07:16:00,41.3,36.2,30.48,NNE,18,1.0,4.0,82,0.00,,,0.00,Wunderground v.1.15,2013-11-05 12:16:00,
2013-11-05 07:17:00,41.3,36.2,30.48,North,11,2.0,4.0,82,0.00,,,0.00,Wunderground v.1.15,2013-11-05 12:17:00,
2013-11-05 07:19:00,41.3,36.2,30.48,ENE,57,2.0,4.0,82,0.00,,,0.00,Wunderground v.1.15,2013-11-05 12:19:00,
2013-11-05 07:20:00,41.3,36.2,30.48,NE,52,0.0,2.0,82,0.00,,,0.00,Wunderground v.1.15,2013-11-05 12:20:00,
2013-11-05 07:21:00,41.4,36.3,30.48,NNW,331,1.0,3.0,82,0.00,,,0.00,Wunderground v.1.15,2013-11-05 12:21:00,
2013-11-05 07:22:00,41.4,36.3,30.48,NNE,16,1.0,3.0,82,0.00,,,0.00,Wunderground v.1.15,2013-11-05 12:22:00,
2013-11-05 07:24:00,41.4,36.3,30.48,NNW,333,0.0,3.0,82,0.00,,,0.00,Wunderground v.1.15,2013-11-05 12:24:00,
2013-11-05 07:26:00,41.5,36.4,30.48,North,359,1.0,3.0,82,0.00,,,0.00,Wunderground v.1.15,2013-11-05 12:26:00,
2013-11-05 07:28:00,41.5,36.4,30.48,North,355,4.0,4.0,82,0.00,,,0.00,Wunderground v.1.15,2013-11-05 12:28:00,
2013-11-05 07:30:00,41.5,36.4,30.48,North,353,1.0,4.0,82,0.00,,,0.00,Wunderground v.1.15,2013-11-05 12:30:00,
2013-11-05 07:31:00,41.5,36.4,30.48,NNE,31,2.0,4.0,82,0.00,,,0.00,Wunderground v.1.15,2013-11-05 12:31:00,
2013-11-05 07:32:00,41.5,36.4,30.48,North,4,2.0,4.0,82,0.00,,,0.00,Wunderground v.1.15,2013-11-05 12:32:00,
2013-11-05 07:33:00,41.5,36.4,30.48,NNW,337,1.0,4.0,82,0.00,,,0.00,Wunderground v.1.15,2013-11-05 12:33:00,
2013-11-05 07:35:00,41.6,36.5,30.48,NNE,14,2.0,5.0,82,0.00,,,0.00,Wunderground v.1.15,2013-11-05 12:35:00,
2013-11-05 07:36:00,41.6,36.5,30.48,ENE,73,1.0,5.0,82,0.00,,,0.00,Wunderground v.1.15,2013-11-05 12:36:00,
2013-11-05 07:37:00,41.6,36.5,30.48,NNE,16,1.0,5.0,82,0.00,,,0.00,Wunderground v.1.15,2013-11-05 12:37:00,
2013-11-05 07:38:00,41.6,36.5,30.48,NNW,338,1.0,5.0,82,0.00,,,0.00,Wunderground v.1.15,2013-11-05 12:38:00,
2013-11-05 07:40:00,41.7,36.6,30.48,NNW,347,1.0,2.0,82,0.00,,,0.00,Wunderground v.1.15,2013-11-05 12:40:00,
2013-11-05 07:41:00,41.7,36.6,30.48,SW,228,1.0,3.0,82,0.00,,,0.00,Wunderground v.1.15,2013-11-05 12:41:00,
2013-11-05 07:42:00,41.7,36.6,30.48,North,7,2.0,3.0,82,0.00,,,0.00,Wunderground v.1.15,2013-11-05 12:42:00,
2013-11-05 07:43:00,41.7,36.6,30.48,NNE,20,1.0,3.0,82,0.00,,,0.00,Wunderground v.1.15,2013-11-05 12:43:00,
2013-11-05 07:46:00,41.8,36.7,30.48,North,6,2.0,5.0,82,0.00,,,0.00,Wunderground v.1.15,2013-11-05 12:46:00,
2013-11-05 07:47:00,41.8,36.7,30.48,North,11,3.0,5.0,82,0.00,,,0.00,Wunderground v.1.15,2013-11-05 12:47:00,
2013-11-05 07:48:00,41.8,36.7,30.48,North,8,2.0,5.0,82,0.00,,,0.00,Wunderground v.1.15,2013-11-05 12:48:00,
2013-11-05 07:49:00,41.8,36.7,30.48,NNW,340,1.0,5.0,82,0.00,,,0.00,Wunderground v.1.15,2013-11-05 12:49:00,
2013-11-05 07:51:00,41.9,36.8,30.48,NNW,347,3.0,3.0,82,0.00,,,0.00,Wunderground v.1.15,2013-11-05 12:51:00,
2013-11-05 07:52:00,41.9,36.8,30.48,North,352,1.0,3.0,82,0.00,,,0.00,Wunderground v.1.15,2013-11-05 12:52:00,
2013-11-05 07:53:00,42.0,36.9,30.48,NNE,20,2.0,3.0,82,0.00,,,0.00,Wunderground v.1.15,2013-11-05 12:53:00,
2013-11-05 07:55:00,42.0,36.9,30.48,North,8,2.0,3.0,82,0.00,,,0.00,Wunderground v.1.15,2013-11-05 12:55:00,
2013-11-05 07:56:00,42.1,37.0,30.48,North,1,2.0,4.0,82,0.00,,,0.00,Wunderground v.1.15,2013-11-05 12:56:00,
2013-11-05 07:57:00,42.1,36.7,30.49,North,1,0.0,4.0,81,0.00,,,0.00,Wunderground v.1.15,2013-11-05 12:57:00,
2013-11-05 07:58:00,42.1,37.0,30.49,North,1,0.0,4.0,82,0.00,,,0.00,Wunderground v.1.15,2013-11-05 12:58:00,
2013-11-05 08:00:00,42.2,37.1,30.49,NW,319,3.0,3.0,82,0.00,,,0.00,Wunderground v.1.15,2013-11-05 13:00:00,
2013-11-05 08:01:00,42.2,37.1,30.49,North,354,2.0,3.0,82,0.00,,,0.00,Wunderground v.1.15,2013-11-05 13:01:00,
2013-11-05 08:02:00,42.3,37.2,30.49,North,354,1.0,3.0,82,0.00,,,0.00,Wunderground v.1.15,2013-11-05 13:02:00,
2013-11-05 08:03:00,42.3,36.9,30.49,NNE,16,1.0,4.0,81,0.00,,,0.00,Wunderground v.1.15,2013-11-05 13:03:00,
2013-11-05 08:04:00,42.3,36.9,30.48,NNE,16,1.0,4.0,81,0.00,,,0.00,Wunderground v.1.15,2013-11-05 13:04:00,
2013-11-05 08:05:00,42.4,37.0,30.48,NE,37,1.0,4.0,81,0.00,,,0.00,Wunderground v.1.15,2013-11-05 13:05:00,
2013-11-05 08:06:00,42.4,37.3,30.48,NE,42,0.0,4.0,82,0.00,,,0.00,Wunderground v.1.15,2013-11-05 13:06:00,
2013-11-05 08:07:00,42.4,37.3,30.48,NE,43,1.0,4.0,82,0.00,,,0.00,Wunderground v.1.15,2013-11-05 13:07:00,
2013-11-05 08:08:00,42.5,37.4,30.49,North,354,2.0,4.0,82,0.00,,,0.00,Wunderground v.1.15,2013-11-05 13:08:00,
2013-11-05 08:09:00,42.5,37.4,30.49,North,360,2.0,4.0,82,0.00,,,0.00,Wunderground v.1.15,2013-11-05 13:09:00,
2013-11-05 08:12:00,42.7,37.3,30.49,NNW,347,2.0,2.0,81,0.00,,,0.00,Wunderground v.1.15,2013-11-05 13:12:00,
2013-11-05 08:13:00,42.7,37.3,30.49,North,4,0.0,2.0,81,0.00,,,0.00,Wunderground v.1.15,2013-11-05 13:13:00,
2013-11-05 08:14:00,42.8,37.4,30.49,North,4,0.0,2.0,81,0.00,,,0.00,Wunderground v.1.15,2013-11-05 13:14:00,
2013-11-05 08:17:00,42.9,37.5,30.49,North,4,0.0,2.0,81,0.00,,,0.00,Wunderground v.1.15,2013-11-05 13:17:00,
2013-11-05 08:18:00,42.9,37.5,30.49,North,4,0.0,2.0,81,0.00,,,0.00,Wunderground v.1.15,2013-11-05 13:18:00,
2013-11-05 08:19:00,43.0,37.9,30.49,NE,42,1.0,2.0,82,0.00,,,0.00,Wunderground v.1.15,2013-11-05 13:19:00,
2013-11-05 08:22:00,43.2,37.8,30.49,NE,56,0.0,5.0,81,0.00,,,0.00,Wunderground v.1.15,2013-11-05 13:22:00,
2013-11-05 08:23:00,43.2,37.8,30.49,NE,56,0.0,5.0,81,0.00,,,0.00,Wunderground v.1.15,2013-11-05 13:23:00,
2013-11-05 08:24:00,43.3,37.9,30.49,NE,56,1.0,5.0,81,0.00,,,0.00,Wunderground v.1.15,2013-11-05 13:24:00,
2013-11-05 08:27:00,43.4,38.0,30.49,ENE,61,1.0,5.0,81,0.00,,,0.00,Wunderground v.1.15,2013-11-05 13:27:00,
2013-11-05 08:28:00,43.5,38.1,30.49,NNE,20,1.0,5.0,81,0.00,,,0.00,Wunderground v.1.15,2013-11-05 13:28:00,
2013-11-05 08:29:00,43.5,38.1,30.49,ENE,61,2.0,7.0,81,0.00,,,0.00,Wunderground v.1.15,2013-11-05 13:29:00,
2013-11-05 08:32:00,43.7,37.9,30.49,NE,56,2.0,2.0,80,0.00,,,0.00,Wunderground v.1.15,2013-11-05 13:32:00,
2013-11-05 08:33:00,43.7,38.3,30.49,NE,56,1.0,2.0,81,0.00,,,0.00,Wunderground v.1.15,2013-11-05 13:33:00,
2013-11-05 08:35:00,43.8,38.0,30.50,WNW,298,2.0,4.0,80,0.00,,,0.00,Wunderground v.1.15,2013-11-05 13:35:00,
2013-11-05 08:37:00,43.9,38.1,30.50,NNW,340,1.0,4.0,80,0.00,,,0.00,Wunderground v.1.15,2013-11-05 13:37:00,
2013-11-05 08:38:00,43.9,38.1,30.50,NNW,340,0.0,4.0,80,0.00,,,0.00,Wunderground v.1.15,2013-11-05 13:38:00,
2013-11-05 08:40:00,44.0,38.2,30.50,North,358,2.0,2.0,80,0.00,,,0.00,Wunderground v.1.15,2013-11-05 13:40:00,
2013-11-05 08:43:00,44.0,38.2,30.50,NNW,338,1.0,4.0,80,0.00,,,0.00,Wunderground v.1.15,2013-11-05 13:43:00,
2013-11-05 08:44:00,44.1,38.3,30.50,North,4,1.0,4.0,80,0.00,,,0.00,Wunderground v.1.15,2013-11-05 13:44:00,
2013-11-05 08:45:00,44.1,38.3,30.50,NE,35,1.0,4.0,80,0.00,,,0.00,Wunderground v.1.15,2013-11-05 13:45:00,
2013-11-05 08:48:00,44.2,38.4,30.50,WNW,300,0.0,4.0,80,0.00,,,0.00,Wunderground v.1.15,2013-11-05 13:48:00,
2013-11-05 08:49:00,44.3,38.5,30.50,NNE,16,1.0,4.0,80,0.00,,,0.00,Wunderground v.1.15,2013-11-05 13:49:00,
2013-11-05 08:50:00,44.4,38.6,30.50,SW,231,0.0,2.0,80,0.00,,,0.00,Wunderground v.1.15,2013-11-05 13:50:00,
2013-11-05 08:51:00,44.4,38.6,30.50,WNW,285,1.0,2.0,80,0.00,,,0.00,Wunderground v.1.15,2013-11-05 13:51:00,
2013-11-05 08:53:00,44.5,38.4,30.50,NNE,20,3.0,6.0,79,0.00,,,0.00,Wunderground v.1.15,2013-11-05 13:53:00,
2013-11-05 08:54:00,44.6,38.5,30.50,North,11,3.0,6.0,79,0.00,,,0.00,Wunderground v.1.15,2013-11-05 13:54:00,
2013-11-05 08:55:00,44.6,38.5,30.50,NNW,341,2.0,6.0,79,0.00,,,0.00,Wunderground v.1.15,2013-11-05 13:55:00,
2013-11-05 08:56:00,44.6,38.5,30.50,NW,321,0.0,6.0,79,0.00,,,0.00,Wunderground v.1.15,2013-11-05 13:56:00,
2013-11-05 08:58:00,44.8,39.0,30.50,ENE,62,2.0,6.0,80,0.00,,,0.00,Wunderground v.1.15,2013-11-05 13:58:00,
2013-11-05 09:00:00,44.9,39.1,30.50,ENE,62,0.0,6.0,80,0.00,,,0.00,Wunderground v.1.15,2013-11-05 14:00:00,
2013-11-05 09:01:00,45.0,39.2,30.50,ENE,63,1.0,1.0,80,0.00,,,0.00,Wunderground v.1.15,2013-11-05 14:01:00,
2013-11-05 09:02:00,45.1,39.3,30.50,ENE,75,2.0,2.0,80,0.00,,,0.00,Wunderground v.1.15,2013-11-05 14:02:00,
2013-11-05 09:03:00,45.2,39.1,30.50,ESE,108,1.0,3.0,79,0.00,,,0.00,Wunderground v.1.15,2013-11-05 14:03:00,
2013-11-05 09:05:00,45.3,39.2,30.50,ESE,108,1.0,3.0,79,0.00,,,0.00,Wunderground v.1.15,2013-11-05 14:05:00,
2013-11-05 09:06:00,45.3,39.2,30.50,West,270,0.0,3.0,79,0.00,,,0.00,Wunderground v.1.15,2013-11-05 14:06:00,
2013-11-05 09:07:00,45.4,39.3,30.50,NNW,332,1.0,3.0,79,0.00,,,0.00,Wunderground v.1.15,2013-11-05 14:07:00,
2013-11-05 09:08:00,45.4,39.3,30.50,NNW,337,1.0,3.0,79,0.00,,,0.00,Wunderground v.1.15,2013-11-05 14:08:00,
2013-11-05 09:10:00,45.5,39.4,30.50,NE,51,1.0,1.0,79,0.00,,,0.00,Wunderground v.1.15,2013-11-05 14:10:00,
2013-11-05 09:11:00,45.5,39.4,30.50,NE,51,1.0,1.0,79,0.00,,,0.00,Wunderground v.1.15,2013-11-05 14:11:00,
2013-11-05 09:12:00,45.6,39.5,30.50,East,79,1.0,2.0,79,0.00,,,0.00,Wunderground v.1.15,2013-11-05 14:12:00,
2013-11-05 09:13:00,45.7,39.6,30.49,ENE,69,1.0,3.0,79,0.00,,,0.00,Wunderground v.1.15,2013-11-05 14:13:00,
2013-11-05 09:15:00,45.7,39.6,30.50,NNE,13,0.0,3.0,79,0.00,,,0.00,Wunderground v.1.15,2013-11-05 14:15:00,
2013-11-05 09:16:00,45.7,39.6,30.50,NE,37,2.0,3.0,79,0.00,,,0.00,Wunderground v.1.15,2013-11-05 14:16:00,
2013-11-05 09:17:00,45.8,39.7,30.50,North,5,2.0,3.0,79,0.00,,,0.00,Wunderground v.1.15,2013-11-05 14:17:00,
2013-11-05 09:18:00,45.8,39.3,30.50,NE,39,2.0,3.0,78,0.00,,,0.00,Wunderground v.1.15,2013-11-05 14:18:00,
2013-11-05 09:20:00,45.9,39.8,30.49,NNE,20,1.0,3.0,79,0.00,,,0.00,Wunderground v.1.15,2013-11-05 14:20:00,
2013-11-05 09:21:00,45.9,39.8,30.49,NNE,16,0.0,3.0,79,0.00,,,0.00,Wunderground v.1.15,2013-11-05 14:21:00,
2013-11-05 09:22:00,45.9,39.8,30.49,NNE,15,0.0,3.0,79,0.00,,,0.00,Wunderground v.1.15,2013-11-05 14:22:00,
2013-11-05 09:23:00,46.0,39.9,30.49,North,9,0.0,3.0,79,0.00,,,0.00,Wunderground v.1.15,2013-11-05 14:23:00,
2013-11-05 09:24:00,46.0,39.9,30.49,North,351,1.0,3.0,79,0.00,,,0.00,Wunderground v.1.15,2013-11-05 14:24:00,
2013-11-05 09:26:00,46.2,40.0,30.49,NW,322,0.0,3.0,79,0.00,,,0.00,Wunderground v.1.15,2013-11-05 14:26:00,
2013-11-05 09:27:00,46.3,39.8,30.50,NNE,29,0.0,3.0,78,0.00,,,0.00,Wunderground v.1.15,2013-11-05 14:27:00,
2013-11-05 09:28:00,46.4,39.9,30.50,North,8,2.0,3.0,78,0.00,,,0.00,Wunderground v.1.15,2013-11-05 14:28:00,
2013-11-05 09:29:00,46.4,39.9,30.50,NNE,13,1.0,3.0,78,0.00,,,0.00,Wunderground v.1.15,2013-11-05 14:29:00,
2013-11-05 09:31:00,46.5,40.0,30.49,NNW,340,1.0,4.0,78,0.00,,,0.00,Wunderground v.1.15,2013-11-05 14:31:00,
2013-11-05 09:32:00,46.5,40.0,30.49,NNW,332,3.0,4.0,78,0.00,,,0.00,Wunderground v.1.15,2013-11-05 14:32:00,
2013-11-05 09:33:00,46.5,40.0,30.49,North,353,1.0,4.0,78,0.00,,,0.00,Wunderground v.1.15,2013-11-05 14:33:00,
2013-11-05 09:34:00,46.5,40.0,30.49,North,11,1.0,4.0,78,0.00,,,0.00,Wunderground v.1.15,2013-11-05 14:34:00,
2013-11-05 09:37:00,46.6,40.1,30.49,NE,42,2.0,4.0,78,0.00,,,0.00,Wunderground v.1.15,2013-11-05 14:37:00,
2013-11-05 09:39:00,46.7,40.2,30.49,North,351,3.0,4.0,78,0.00,,,0.00,Wunderground v.1.15,2013-11-05 14:39:00,
2013-11-05 09:40:00,46.7,40.2,30.49,ENE,72,2.0,4.0,78,0.00,,,0.00,Wunderground v.1.15,2013-11-05 14:40:00,
2013-11-05 09:41:00,46.8,40.3,30.50,North,358,2.0,4.0,78,0.00,,,0.00,Wunderground v.1.15,2013-11-05 14:41:00,
2013-11-05 09:42:00,46.8,40.3,30.50,North,11,1.0,4.0,78,0.00,,,0.00,Wunderground v.1.15,2013-11-05 14:42:00,
2013-11-05 09:43:00,46.8,40.3,30.50,North,10,1.0,4.0,78,0.00,,,0.00,Wunderground v.1.15,2013-11-05 14:43:00,
2013-11-05 09:44:00,46.8,40.3,30.50,NNE,22,3.0,4.0,78,0.00,,,0.00,Wunderground v.1.15,2013-11-05 14:44:00,
2013-11-05 09:45:00,46.9,40.4,30.50,NNE,15,1.0,4.0,78,0.00,,,0.00,Wunderground v.1.15,2013-11-05 14:45:00,
2013-11-05 09:47:00,46.9,40.4,30.50,NNW,327,4.0,4.0,78,0.00,,,0.00,Wunderground v.1.15,2013-11-05 14:47:00,
2013-11-05 09:48:00,47.0,40.5,30.50,NNW,332,2.0,5.0,78,0.00,,,0.00,Wunderground v.1.15,2013-11-05 14:48:00,
2013-11-05 09:50:00,47.1,40.6,30.50,North,349,2.0,2.0,78,0.00,,,0.00,Wunderground v.1.15,2013-11-05 14:50:00,
2013-11-05 09:52:00,47.2,40.7,30.50,NNW,345,1.0,2.0,78,0.00,,,0.00,Wunderground v.1.15,2013-11-05 14:52:00,
2013-11-05 09:53:00,47.3,40.8,30.50,North,349,2.0,5.0,78,0.00,,,0.00,Wunderground v.1.15,2013-11-05 14:53:00,
2013-11-05 09:55:00,47.4,40.9,30.50,NNE,27,1.0,5.0,78,0.00,,,0.00,Wunderground v.1.15,2013-11-05 14:55:00,
2013-11-05 09:57:00,47.6,40.7,30.50,North,11,1.0,5.0,77,0.00,,,0.00,Wunderground v.1.15,2013-11-05 14:57:00,
2013-11-05 09:58:00,47.6,40.7,30.50,ENE,61,1.0,5.0,77,0.00,,,0.00,Wunderground v.1.15,2013-11-05 14:58:00,
2013-11-05 10:00:00,47.6,40.7,30.50,NE,56,1.0,2.0,77,0.00,,,0.00,Wunderground v.1.15,2013-11-05 15:00:00,
2013-11-05 10:01:00,47.6,40.7,30.50,NNE,22,1.0,2.0,77,0.00,,,0.00,Wunderground v.1.15,2013-11-05 15:01:00,
2013-11-05 10:02:00,47.6,40.7,30.50,North,349,2.0,3.0,77,0.00,,,0.00,Wunderground v.1.15,2013-11-05 15:02:00,
2013-11-05 10:03:00,47.7,40.8,30.50,WNW,302,3.0,4.0,77,0.00,,,0.00,Wunderground v.1.15,2013-11-05 15:03:00,
2013-11-05 10:04:00,47.7,40.8,30.50,North,6,1.0,4.0,77,0.00,,,0.00,Wunderground v.1.15,2013-11-05 15:04:00,
2013-11-05 10:05:00,47.7,40.8,30.50,North,352,0.0,4.0,77,0.00,,,0.00,Wunderground v.1.15,2013-11-05 15:05:00,
2013-11-05 10:06:00,47.7,40.8,30.50,North,355,1.0,4.0,77,0.00,,,0.00,Wunderground v.1.15,2013-11-05 15:06:00,
2013-11-05 10:08:00,47.9,41.0,30.50,WNW,300,0.0,4.0,77,0.00,,,0.00,Wunderground v.1.15,2013-11-05 15:08:00,
2013-11-05 10:09:00,47.9,41.0,30.50,NE,39,2.0,4.0,77,0.00,,,0.00,Wunderground v.1.15,2013-11-05 15:09:00,
2013-11-05 10:11:00,48.0,41.1,30.50,NNW,340,1.0,1.0,77,0.00,,,0.00,Wunderground v.1.15,2013-11-05 15:11:00,
2013-11-05 10:13:00,48.0,41.1,30.50,NNW,342,0.0,4.0,77,0.00,,,0.00,Wunderground v.1.15,2013-11-05 15:13:00,
2013-11-05 10:14:00,48.1,41.2,30.50,NNW,340,0.0,4.0,77,0.00,,,0.00,Wunderground v.1.15,2013-11-05 15:14:00,
2013-11-05 10:16:00,48.1,41.2,30.50,NNE,20,3.0,4.0,77,0.00,,,0.00,Wunderground v.1.15,2013-11-05 15:16:00,
2013-11-05 10:18:00,48.0,41.1,30.50,NNE,20,1.0,4.0,77,0.00,,,0.00,Wunderground v.1.15,2013-11-05 15:18:00,
2013-11-05 10:19:00,48.0,41.1,30.50,NNE,13,2.0,4.0,77,0.00,,,0.00,Wunderground v.1.15,2013-11-05 15:19:00,
2013-11-05 10:20:00,48.0,41.1,30.50,NNE,23,2.0,3.0,77,0.00,,,0.00,Wunderground v.1.15,2013-11-05 15:20:00,
2013-11-05 10:21:00,48.1,41.2,30.50,NE,35,3.0,3.0,77,0.00,,,0.00,Wunderground v.1.15,2013-11-05 15:21:00,
2013-11-05 10:22:00,48.1,41.2,30.50,NNE,30,3.0,4.0,77,0.00,,,0.00,Wunderground v.1.15,2013-11-05 15:22:00,
2013-11-05 10:23:00,48.1,41.2,30.50,North,1,1.0,6.0,77,0.00,,,0.00,Wunderground v.1.15,2013-11-05 15:23:00,
2013-11-05 10:24:00,48.1,41.2,30.50,North,354,2.0,6.0,77,0.00,,,0.00,Wunderground v.1.15,2013-11-05 15:24:00,
2013-11-05 10:26:00,48.1,41.2,30.50,ENE,68,1.0,6.0,77,0.00,,,0.00,Wunderground v.1.15,2013-11-05 15:26:00,
2013-11-05 10:27:00,48.1,41.2,30.50,NW,315,1.0,6.0,77,0.00,,,0.00,Wunderground v.1.15,2013-11-05 15:27:00,
2013-11-05 10:29:00,48.2,41.3,30.50,NNW,337,1.0,6.0,77,0.00,,,0.00,Wunderground v.1.15,2013-11-05 15:29:00,
2013-11-05 10:30:00,48.2,41.3,30.50,ENE,61,2.0,2.0,77,0.00,,,0.00,Wunderground v.1.15,2013-11-05 15:30:00,
2013-11-05 10:31:00,48.3,41.4,30.50,ENE,63,1.0,2.0,77,0.00,,,0.00,Wunderground v.1.15,2013-11-05 15:31:00,
2013-11-05 10:32:00,48.4,41.5,30.50,ENE,63,2.0,2.0,77,0.00,,,0.00,Wunderground v.1.15,2013-11-05 15:32:00,
2013-11-05 10:34:00,48.5,41.6,30.50,NW,324,1.0,3.0,77,0.00,,,0.00,Wunderground v.1.15,2013-11-05 15:34:00,
2013-11-05 10:35:00,48.5,41.6,30.50,NW,324,1.0,3.0,77,0.00,,,0.00,Wunderground v.1.15,2013-11-05 15:35:00,
2013-11-05 10:36:00,48.6,41.4,30.50,NW,325,0.0,3.0,76,0.00,,,0.00,Wunderground v.1.15,2013-11-05 15:36:00,
2013-11-05 10:38:00,48.7,41.5,30.50,NW,312,3.0,5.0,76,0.00,,,0.00,Wunderground v.1.15,2013-11-05 15:38:00,
2013-11-05 10:39:00,48.7,41.1,30.50,NNW,333,2.0,5.0,75,0.00,,,0.00,Wunderground v.1.15,2013-11-05 15:39:00,
2013-11-05 10:40:00,48.8,41.2,30.50,NE,40,3.0,4.0,75,0.00,,,0.00,Wunderground v.1.15,2013-11-05 15:40:00,
2013-11-05 10:41:00,48.8,41.2,30.50,NNW,334,0.0,4.0,75,0.00,,,0.00,Wunderground v.1.15,2013-11-05 15:41:00,
2013-11-05 10:42:00,48.8,41.2,30.50,ENE,63,2.0,4.0,75,0.00,,,0.00,Wunderground v.1.15,2013-11-05 15:42:00,
2013-11-05 10:43:00,48.8,41.6,30.50,NNE,30,2.0,4.0,76,0.00,,,0.00,Wunderground v.1.15,2013-11-05 15:43:00,
2013-11-05 10:45:00,48.9,41.7,30.50,NNE,26,1.0,4.0,76,0.00,,,0.00,Wunderground v.1.15,2013-11-05 15:45:00,
2013-11-05 10:46:00,48.9,41.3,30.50,NNE,30,1.0,4.0,75,0.00,,,0.00,Wunderground v.1.15,2013-11-05 15:46:00,
2013-11-05 10:47:00,48.9,41.7,30.50,East,80,1.0,4.0,76,0.00,,,0.00,Wunderground v.1.15,2013-11-05 15:47:00,
2013-11-05 10:48:00,48.9,41.3,30.50,NNE,24,1.0,4.0,75,0.00,,,0.00,Wunderground v.1.15,2013-11-05 15:48:00,
2013-11-05 10:50:00,49.0,41.8,30.50,NNW,333,1.0,2.0,76,0.00,,,0.00,Wunderground v.1.15,2013-11-05 15:50:00,
2013-11-05 10:51:00,49.0,41.8,30.50,NE,56,1.0,2.0,76,0.00,,,0.00,Wunderground v.1.15,2013-11-05 15:51:00,
2013-11-05 10:52:00,49.0,41.8,30.50,NNE,32,1.0,2.0,76,0.00,,,0.00,Wunderground v.1.15,2013-11-05 15:52:00,
2013-11-05 10:53:00,49.1,41.9,30.50,NNE,13,1.0,3.0,76,0.00,,,0.00,Wunderground v.1.15,2013-11-05 15:53:00,
2013-11-05 10:55:00,49.1,41.9,30.50,North,353,3.0,3.0,76,0.00,,,0.00,Wunderground v.1.15,2013-11-05 15:55:00,
2013-11-05 10:56:00,49.1,41.5,30.50,NNE,13,2.0,5.0,75,0.00,,,0.00,Wunderground v.1.15,2013-11-05 15:56:00,
2013-11-05 10:57:00,49.2,42.0,30.50,NNE,16,4.0,5.0,76,0.00,,,0.00,Wunderground v.1.15,2013-11-05 15:57:00,
2013-11-05 10:58:00,49.2,42.0,30.50,NNE,20,1.0,5.0,76,0.00,,,0.00,Wunderground v.1.15,2013-11-05 15:58:00,
2013-11-05 11:00:00,49.2,41.6,30.50,North,6,2.0,2.0,75,0.00,,,0.00,Wunderground v.1.15,2013-11-05 16:00:00,
2013-11-05 11:01:00,49.3,41.7,30.50,NE,50,0.0,2.0,75,0.00,,,0.00,Wunderground v.1.15,2013-11-05 16:01:00,
2013-11-05 11:02:00,49.3,41.7,30.50,NNE,30,2.0,4.0,75,0.00,,,0.00,Wunderground v.1.15,2013-11-05 16:02:00,
2013-11-05 11:03:00,49.3,41.7,30.50,NNW,343,3.0,4.0,75,0.00,,,0.00,Wunderground v.1.15,2013-11-05 16:03:00,
2013-11-05 11:04:00,49.4,41.8,30.50,North,9,1.0,6.0,75,0.00,,,0.00,Wunderground v.1.15,2013-11-05 16:04:00,
2013-11-05 11:05:00,49.4,41.8,30.50,NNE,18,2.0,6.0,75,0.00,,,0.00,Wunderground v.1.15,2013-11-05 16:05:00,
2013-11-05 11:06:00,49.4,41.8,30.50,NW,319,1.0,6.0,75,0.00,,,0.00,Wunderground v.1.15,2013-11-05 16:06:00,
2013-11-05 11:07:00,49.5,41.9,30.50,NNE,15,1.0,6.0,75,0.00,,,0.00,Wunderground v.1.15,2013-11-05 16:07:00,
2013-11-05 11:08:00,49.5,41.9,30.50,NNE,30,2.0,6.0,75,0.00,,,0.00,Wunderground v.1.15,2013-11-05 16:08:00,
2013-11-05 11:10:00,49.5,41.6,30.50,NE,37,1.0,2.0,74,0.00,,,0.00,Wunderground v.1.15,2013-11-05 16:10:00,
2013-11-05 11:11:00,49.6,41.7,30.50,WSW,243,1.0,5.0,74,0.00,,,0.00,Wunderground v.1.15,2013-11-05 16:11:00,
2013-11-05 11:13:00,49.6,42.0,30.50,East,82,0.0,5.0,75,0.00,,,0.00,Wunderground v.1.15,2013-11-05 16:13:00,
2013-11-05 11:14:00,49.7,42.1,30.50,NNW,347,3.0,5.0,75,0.00,,,0.00,Wunderground v.1.15,2013-11-05 16:14:00,
2013-11-05 11:15:00,49.8,42.2,30.50,NNE,31,2.0,5.0,75,0.00,,,0.00,Wunderground v.1.15,2013-11-05 16:15:00,
2013-11-05 11:16:00,49.9,42.3,30.49,North,11,5.0,5.0,75,0.00,,,0.00,Wunderground v.1.15,2013-11-05 16:16:00,
2013-11-05 11:17:00,49.9,42.3,30.49,NE,42,2.0,7.0,75,0.00,,,0.00,Wunderground v.1.15,2013-11-05 16:17:00,
2013-11-05 11:18:00,49.9,41.9,30.49,NNE,18,2.0,7.0,74,0.00,,,0.00,Wunderground v.1.15,2013-11-05 16:18:00,
2013-11-05 11:19:00,50.0,42.0,30.49,NNE,18,1.0,7.0,74,0.00,,,0.00,Wunderground v.1.15,2013-11-05 16:19:00,
2013-11-05 11:20:00,50.0,42.0,30.49,North,11,1.0,2.0,74,0.00,,,0.00,Wunderground v.1.15,2013-11-05 16:20:00,
2013-11-05 11:21:00,50.1,42.1,30.49,WNW,300,0.0,2.0,74,0.00,,,0.00,Wunderground v.1.15,2013-11-05 16:21:00,
2013-11-05 11:22:00,50.2,42.2,30.49,East,101,1.0,2.0,74,0.00,,,0.00,Wunderground v.1.15,2013-11-05 16:22:00,
2013-11-05 11:23:00,50.2,42.2,30.49,East,101,1.0,2.0,74,0.00,,,0.00,Wunderground v.1.15,2013-11-05 16:23:00,
2013-11-05 11:25:00,50.3,42.0,30.49,NNW,336,3.0,5.0,73,0.00,,,0.00,Wunderground v.1.15,2013-11-05 16:25:00,
2013-11-05 11:26:00,50.4,42.1,30.49,North,1,2.0,5.0,73,0.00,,,0.00,Wunderground v.1.15,2013-11-05 16:26:00,
2013-11-05 11:27:00,50.4,42.1,30.49,NW,304,3.0,5.0,73,0.00,,,0.00,Wunderground v.1.15,2013-11-05 16:27:00,
2013-11-05 11:28:00,50.4,42.1,30.49,NNW,340,1.0,5.0,73,0.00,,,0.00,Wunderground v.1.15,2013-11-05 16:28:00,
2013-11-05 11:30:00,50.5,42.2,30.48,North,355,1.0,2.0,73,0.00,,,0.00,Wunderground v.1.15,2013-11-05 16:30:00,
2013-11-05 11:31:00,50.5,42.2,30.48,North,6,2.0,2.0,73,0.00,,,0.00,Wunderground v.1.15,2013-11-05 16:31:00,
2013-11-05 11:32:00,50.6,42.6,30.48,North,1,2.0,3.0,74,0.00,,,0.00,Wunderground v.1.15,2013-11-05 16:32:00,
2013-11-05 11:33:00,50.7,42.4,30.48,NE,41,2.0,3.0,73,0.00,,,0.00,Wunderground v.1.15,2013-11-05 16:33:00,
2013-11-05 11:36:00,50.8,42.5,30.48,NNE,24,2.0,3.0,73,0.00,,,0.00,Wunderground v.1.15,2013-11-05 16:36:00,
2013-11-05 11:37:00,51.0,42.6,30.48,NNE,25,0.0,3.0,73,0.00,,,0.00,Wunderground v.1.15,2013-11-05 16:37:00,
2013-11-05 11:40:00,51.2,42.8,30.48,ENE,64,0.0,2.0,73,0.00,,,0.00,Wunderground v.1.15,2013-11-05 16:40:00,
2013-11-05 11:41:00,51.3,42.9,30.48,NW,309,1.0,2.0,73,0.00,,,0.00,Wunderground v.1.15,2013-11-05 16:41:00,
2013-11-05 11:42:00,51.3,42.6,30.48,NNE,16,0.0,3.0,72,0.00,,,0.00,Wunderground v.1.15,2013-11-05 16:42:00,
2013-11-05 11:43:00,51.4,43.0,30.48,NNE,22,1.0,3.0,73,0.00,,,0.00,Wunderground v.1.15,2013-11-05 16:43:00,
2013-11-05 11:46:00,51.6,42.9,30.48,ENE,65,2.0,3.0,72,0.00,,,0.00,Wunderground v.1.15,2013-11-05 16:46:00,
2013-11-05 11:47:00,51.7,43.0,30.48,East,83,3.0,3.0,72,0.00,,,0.00,Wunderground v.1.15,2013-11-05 16:47:00,
2013-11-05 11:48:00,51.7,43.0,30.48,ENE,78,1.0,3.0,72,0.00,,,0.00,Wunderground v.1.15,2013-11-05 16:48:00,
2013-11-05 11:51:00,51.8,43.4,30.47,ENE,63,3.0,4.0,73,0.00,,,0.00,Wunderground v.1.15,2013-11-05 16:51:00,
2013-11-05 11:52:00,51.8,43.4,30.47,North,355,1.0,4.0,73,0.00,,,0.00,Wunderground v.1.15,2013-11-05 16:52:00,
2013-11-05 11:53:00,51.9,43.5,30.47,North,11,2.0,4.0,73,0.00,,,0.00,Wunderground v.1.15,2013-11-05 16:53:00,
2013-11-05 11:56:00,52.2,43.4,30.47,North,352,1.0,4.0,72,0.00,,,0.00,Wunderground v.1.15,2013-11-05 16:56:00,
2013-11-05 11:57:00,52.4,43.6,30.47,North,355,1.0,4.0,72,0.00,,,0.00,Wunderground v.1.15,2013-11-05 16:57:00,
2013-11-05 11:58:00,52.5,43.7,30.47,ENE,75,1.0,4.0,72,0.00,,,0.00,Wunderground v.1.15,2013-11-05 16:58:00,
2013-11-05 12:01:00,52.9,43.7,30.47,WSW,245,2.0,4.0,71,0.00,,,0.00,Wunderground v.1.15,2013-11-05 17:01:00,
2013-11-05 12:02:00,53.0,43.8,30.47,NNW,333,1.0,4.0,71,0.00,,,0.00,Wunderground v.1.15,2013-11-05 17:02:00,
2013-11-05 12:03:00,53.2,44.0,30.47,NNE,24,3.0,4.0,71,0.00,,,0.00,Wunderground v.1.15,2013-11-05 17:03:00,
2013-11-05 12:04:00,53.2,44.0,30.47,North,349,2.0,4.0,71,0.00,,,0.00,Wunderground v.1.15,2013-11-05 17:04:00,
2013-11-05 12:06:00,53.4,43.9,30.47,NNE,27,1.0,4.0,70,0.00,,,0.00,Wunderground v.1.15,2013-11-05 17:06:00,
2013-11-05 12:07:00,53.5,44.0,30.47,NNE,32,2.0,4.0,70,0.00,,,0.00,Wunderground v.1.15,2013-11-05 17:07:00,
2013-11-05 12:08:00,53.5,44.0,30.47,NW,321,2.0,4.0,70,0.00,,,0.00,Wunderground v.1.15,2013-11-05 17:08:00,
2013-11-05 12:09:00,53.5,43.6,30.47,NE,38,3.0,4.0,69,0.00,,,0.00,Wunderground v.1.15,2013-11-05 17:09:00,
2013-11-05 12:11:00,53.6,43.7,30.46,NNW,347,2.0,3.0,69,0.00,,,0.00,Wunderground v.1.15,2013-11-05 17:11:00,
2013-11-05 12:12:00,53.7,44.1,30.46,North,349,1.0,3.0,70,0.00,,,0.00,Wunderground v.1.15,2013-11-05 17:12:00,
2013-11-05 12:13:00,53.7,44.1,30.46,NNW,328,0.0,3.0,70,0.00,,,0.00,Wunderground v.1.15,2013-11-05 17:13:00,
2013-11-05 12:14:00,53.8,44.2,30.46,NNW,328,0.0,3.0,70,0.00,,,0.00,Wunderground v.1.15,2013-11-05 17:14:00,
2013-11-05 12:17:00,54.2,45.0,30.46,NE,41,2.0,3.0,71,0.00,,,0.00,Wunderground v.1.15,2013-11-05 17:17:00,
2013-11-05 12:18:00,54.4,44.4,30.46,NNE,32,1.0,3.0,69,0.00,,,0.00,Wunderground v.1.15,2013-11-05 17:18:00,
2013-11-05 12:19:00,54.5,44.5,30.46,NE,46,1.0,3.0,69,0.00,,,0.00,Wunderground v.1.15,2013-11-05 17:19:00,
2013-11-05 12:22:00,54.6,44.6,30.46,East,90,0.0,3.0,69,0.00,,,0.00,Wunderground v.1.15,2013-11-05 17:22:00,
2013-11-05 12:23:00,54.6,44.6,30.46,NNE,26,1.0,3.0,69,0.00,,,0.00,Wunderground v.1.15,2013-11-05 17:23:00,
2013-11-05 12:24:00,54.6,45.0,30.46,East,79,2.0,3.0,70,0.00,,,0.00,Wunderground v.1.15,2013-11-05 17:24:00,
2013-11-05 12:27:00,54.6,44.6,30.45,North,9,1.0,3.0,69,0.00,,,0.00,Wunderground v.1.15,2013-11-05 17:27:00,
2013-11-05 12:28:00,54.6,45.0,30.45,ENE,68,1.0,3.0,70,0.00,,,0.00,Wunderground v.1.15,2013-11-05 17:28:00,
2013-11-05 12:29:00,54.6,45.0,30.45,ENE,68,0.0,3.0,70,0.00,,,0.00,Wunderground v.1.15,2013-11-05 17:29:00,
2013-11-05 12:32:00,54.8,45.2,30.45,East,90,2.0,4.0,70,0.00,,,0.00,Wunderground v.1.15,2013-11-05 17:32:00,
2013-11-05 12:33:00,54.8,45.2,30.45,ENE,74,2.0,4.0,70,0.00,,,0.00,Wunderground v.1.15,2013-11-05 17:33:00,
2013-11-05 12:34:00,54.7,45.1,30.45,ENE,75,2.0,4.0,70,0.00,,,0.00,Wunderground v.1.15,2013-11-05 17:34:00,
2013-11-05 12:37:00,54.8,45.2,30.45,NNE,18,1.0,4.0,70,0.00,,,0.00,Wunderground v.1.15,2013-11-05 17:37:00,
2013-11-05 12:38:00,54.9,45.3,30.45,NNE,18,1.0,4.0,70,0.00,,,0.00,Wunderground v.1.15,2013-11-05 17:38:00,
2013-11-05 12:39:00,54.9,45.3,30.45,East,84,1.0,4.0,70,0.00,,,0.00,Wunderground v.1.15,2013-11-05 17:39:00,
2013-11-05 12:40:00,54.9,44.9,30.45,East,85,0.0,2.0,69,0.00,,,0.00,Wunderground v.1.15,2013-11-05 17:40:00,
2013-11-05 12:42:00,55.0,45.4,30.44,ENE,59,3.0,4.0,70,0.00,,,0.00,Wunderground v.1.15,2013-11-05 17:42:00,
2013-11-05 12:43:00,55.1,45.5,30.45,NNE,13,2.0,4.0,70,0.00,,,0.00,Wunderground v.1.15,2013-11-05 17:43:00,
2013-11-05 12:44:00,55.2,45.6,30.44,ENE,74,2.0,4.0,70,0.00,,,0.00,Wunderground v.1.15,2013-11-05 17:44:00,
2013-11-05 12:45:00,55.2,45.6,30.44,East,87,2.0,4.0,70,0.00,,,0.00,Wunderground v.1.15,2013-11-05 17:45:00,
2013-11-05 12:47:00,55.1,45.1,30.44,ENE,65,1.0,4.0,69,0.00,,,0.00,Wunderground v.1.15,2013-11-05 17:47:00,
2013-11-05 12:48:00,55.0,45.0,30.44,ENE,75,0.0,4.0,69,0.00,,,0.00,Wunderground v.1.15,2013-11-05 17:48:00,
2013-11-05 12:49:00,55.1,45.5,30.45,West,277,2.0,4.0,70,0.00,,,0.00,Wunderground v.1.15,2013-11-05 17:49:00,
2013-11-05 12:50:00,55.0,45.4,30.45,North,4,2.0,2.0,70,0.00,,,0.00,Wunderground v.1.15,2013-11-05 17:50:00,
2013-11-05 12:53:00,55.3,45.7,30.44,ENE,71,2.0,6.0,70,0.00,,,0.00,Wunderground v.1.15,2013-11-05 17:53:00,
2013-11-05 12:54:00,55.4,45.4,30.44,ENE,73,2.0,6.0,69,0.00,,,0.00,Wunderground v.1.15,2013-11-05 17:54:00,
2013-11-05 12:55:00,55.4,45.4,30.44,East,94,1.0,6.0,69,0.00,,,0.00,Wunderground v.1.15,2013-11-05 17:55:00,
2013-11-05 12:58:00,55.7,45.7,30.44,NNW,344,0.0,6.0,69,0.00,,,0.00,Wunderground v.1.15,2013-11-05 17:58:00,
2013-11-05 12:59:00,55.7,45.7,30.44,NNW,344,0.0,6.0,69,0.00,,,0.00,Wunderground v.1.15,2013-11-05 17:59:00,
2013-11-05 13:00:00,55.9,45.9,30.44,NNW,338,5.0,5.0,69,0.00,,,0.00,Wunderground v.1.15,2013-11-05 18:00:00,
2013-11-05 13:03:00,56.1,46.1,30.44,NNW,340,3.0,5.0,69,0.00,,,0.00,Wunderground v.1.15,2013-11-05 18:03:00,
2013-11-05 13:05:00,56.2,46.2,30.44,NNW,338,2.0,6.0,69,0.00,,,0.00,Wunderground v.1.15,2013-11-05 18:05:00,
2013-11-05 13:06:00,56.1,45.7,30.44,North,5,2.0,6.0,68,0.00,,,0.00,Wunderground v.1.15,2013-11-05 18:06:00,
2013-11-05 13:09:00,56.0,45.6,30.44,North,3,1.0,6.0,68,0.00,,,0.00,Wunderground v.1.15,2013-11-05 18:09:00,
2013-11-05 13:10:00,56.0,46.0,30.44,NE,44,1.0,2.0,69,0.00,,,0.00,Wunderground v.1.15,2013-11-05 18:10:00,
2013-11-05 13:12:00,56.0,46.0,30.44,North,356,1.0,4.0,69,0.00,,,0.00,Wunderground v.1.15,2013-11-05 18:12:00,
2013-11-05 13:14:00,56.1,46.1,30.44,North,360,2.0,4.0,69,0.00,,,0.00,Wunderground v.1.15,2013-11-05 18:14:00,
2013-11-05 13:15:00,56.1,46.4,30.44,NNW,343,0.0,4.0,70,0.00,,,0.00,Wunderground v.1.15,2013-11-05 18:15:00,
2013-11-05 13:16:00,56.1,46.4,30.44,NE,41,2.0,4.0,70,0.00,,,0.00,Wunderground v.1.15,2013-11-05 18:16:00,
2013-11-05 13:17:00,56.2,46.5,30.43,WNW,302,1.0,4.0,70,0.00,,,0.00,Wunderground v.1.15,2013-11-05 18:17:00,
2013-11-05 13:19:00,56.3,46.3,30.43,NNW,333,0.0,5.0,69,0.00,,,0.00,Wunderground v.1.15,2013-11-05 18:19:00,
2013-11-05 13:20:00,56.4,46.4,30.43,North,356,3.0,8.0,69,0.00,,,0.00,Wunderground v.1.15,2013-11-05 18:20:00,
2013-11-05 13:21:00,56.4,46.4,30.43,NW,315,3.0,8.0,69,0.00,,,0.00,Wunderground v.1.15,2013-11-05 18:21:00,
2013-11-05 13:22:00,56.5,46.4,30.43,NNW,330,3.0,8.0,69,0.00,,,0.00,Wunderground v.1.15,2013-11-05 18:22:00,
2013-11-05 13:24:00,56.7,46.6,30.43,South,178,0.0,8.0,69,0.00,,,0.00,Wunderground v.1.15,2013-11-05 18:24:00,
2013-11-05 13:26:00,56.8,46.7,30.43,NNE,24,1.0,8.0,69,0.00,,,0.00,Wunderground v.1.15,2013-11-05 18:26:00,
2013-11-05 13:27:00,56.9,46.8,30.43,East,82,1.0,8.0,69,0.00,,,0.00,Wunderground v.1.15,2013-11-05 18:27:00,
2013-11-05 13:29:00,57.0,46.9,30.43,NNW,336,1.0,8.0,69,0.00,,,0.00,Wunderground v.1.15,2013-11-05 18:29:00,
2013-11-05 13:31:00,57.0,46.5,30.43,NNW,337,1.0,2.0,68,0.00,,,0.00,Wunderground v.1.15,2013-11-05 18:31:00,
2013-11-05 13:32:00,57.0,46.5,30.43,NNW,341,1.0,2.0,68,0.00,,,0.00,Wunderground v.1.15,2013-11-05 18:32:00,
2013-11-05 13:33:00,57.0,46.5,30.43,NNW,341,2.0,6.0,68,0.00,,,0.00,Wunderground v.1.15,2013-11-05 18:33:00,
2013-11-05 13:34:00,56.9,46.4,30.43,North,360,1.0,6.0,68,0.00,,,0.00,Wunderground v.1.15,2013-11-05 18:34:00,
2013-11-05 13:36:00,56.9,46.4,30.43,NNW,340,3.0,6.0,68,0.00,,,0.00,Wunderground v.1.15,2013-11-05 18:36:00,
2013-11-05 13:37:00,56.8,46.7,30.43,NNW,345,2.0,6.0,69,0.00,,,0.00,Wunderground v.1.15,2013-11-05 18:37:00,
2013-11-05 13:38:00,56.8,46.7,30.43,North,354,2.0,6.0,69,0.00,,,0.00,Wunderground v.1.15,2013-11-05 18:38:00,
2013-11-05 13:39:00,56.8,46.3,30.43,ENE,72,1.0,6.0,68,0.00,,,0.00,Wunderground v.1.15,2013-11-05 18:39:00,
2013-11-05 13:41:00,56.7,46.6,30.43,NNW,333,2.0,4.0,69,0.00,,,0.00,Wunderground v.1.15,2013-11-05 18:41:00,
2013-11-05 13:43:00,56.7,46.3,30.43,North,1,2.0,4.0,68,0.00,,,0.00,Wunderground v.1.15,2013-11-05 18:43:00,
2013-11-05 13:44:00,56.7,46.3,30.43,North,8,2.0,4.0,68,0.00,,,0.00,Wunderground v.1.15,2013-11-05 18:44:00,
2013-11-05 13:45:00,56.6,46.5,30.43,WNW,283,0.0,4.0,69,0.00,,,0.00,Wunderground v.1.15,2013-11-05 18:45:00,
2013-11-05 13:47:00,56.7,47.0,30.43,WNW,283,0.0,4.0,70,0.00,,,0.00,Wunderground v.1.15,2013-11-05 18:47:00,
2013-11-05 13:49:00,56.7,46.6,30.43,East,83,0.0,4.0,69,0.00,,,0.00,Wunderground v.1.15,2013-11-05 18:49:00,
2013-11-05 13:50:00,56.7,46.6,30.43,NNW,338,1.0,1.0,69,0.00,,,0.00,Wunderground v.1.15,2013-11-05 18:50:00,
2013-11-05 13:52:00,56.8,46.7,30.43,NNW,330,2.0,3.0,69,0.00,,,0.00,Wunderground v.1.15,2013-11-05 18:52:00,
2013-11-05 13:54:00,56.8,46.7,30.43,NNW,340,1.0,3.0,69,0.00,,,0.00,Wunderground v.1.15,2013-11-05 18:54:00,
2013-11-05 13:55:00,56.9,46.8,30.43,ENE,77,2.0,3.0,69,0.00,,,0.00,Wunderground v.1.15,2013-11-05 18:55:00,
2013-11-05 13:57:00,57.0,46.9,30.42,NNW,338,1.0,4.0,69,0.00,,,0.00,Wunderground v.1.15,2013-11-05 18:57:00,
2013-11-05 13:59:00,57.1,47.4,30.42,NE,49,2.0,4.0,70,0.00,,,0.00,Wunderground v.1.15,2013-11-05 18:59:00,
2013-11-05 14:00:00,57.1,47.4,30.42,North,349,2.0,2.0,70,0.00,,,0.00,Wunderground v.1.15,2013-11-05 19:00:00,
2013-11-05 14:01:00,57.1,47.0,30.42,NNE,30,1.0,2.0,69,0.00,,,0.00,Wunderground v.1.15,2013-11-05 19:01:00,
2013-11-05 14:02:00,57.1,47.0,30.42,NNW,330,1.0,2.0,69,0.00,,,0.00,Wunderground v.1.15,2013-11-05 19:02:00,
2013-11-05 14:05:00,57.1,47.0,30.42,NNW,330,1.0,2.0,69,0.00,,,0.00,Wunderground v.1.15,2013-11-05 19:05:00,
2013-11-05 14:06:00,57.1,47.0,30.42,NW,307,2.0,3.0,69,0.00,,,0.00,Wunderground v.1.15,2013-11-05 19:06:00,
2013-11-05 14:07:00,57.1,47.0,30.42,NW,309,0.0,3.0,69,0.00,,,0.00,Wunderground v.1.15,2013-11-05 19:07:00,
2013-11-05 14:10:00,57.1,47.0,30.42,ENE,68,1.0,2.0,69,0.00,,,0.00,Wunderground v.1.15,2013-11-05 19:10:00,
2013-11-05 14:11:00,57.1,46.6,30.42,ENE,68,0.0,2.0,68,0.00,,,0.00,Wunderground v.1.15,2013-11-05 19:11:00,
2013-11-05 14:12:00,57.1,47.0,30.42,NNW,332,0.0,2.0,69,0.00,,,0.00,Wunderground v.1.15,2013-11-05 19:12:00,
2013-11-05 14:15:00,57.0,47.3,30.42,NNW,343,2.0,2.0,70,0.00,,,0.00,Wunderground v.1.15,2013-11-05 19:15:00,
2013-11-05 14:16:00,57.0,46.9,30.42,NE,46,2.0,2.0,69,0.00,,,0.00,Wunderground v.1.15,2013-11-05 19:16:00,
2013-11-05 14:18:00,57.0,46.9,30.41,NNE,20,2.0,4.0,69,0.00,,,0.00,Wunderground v.1.15,2013-11-05 19:18:00,
2013-11-05 14:20:00,57.0,46.9,30.41,NNW,327,2.0,2.0,69,0.00,,,0.00,Wunderground v.1.15,2013-11-05 19:20:00,
2013-11-05 14:21:00,56.9,46.8,30.41,NNW,328,1.0,2.0,69,0.00,,,0.00,Wunderground v.1.15,2013-11-05 19:21:00,
2013-11-05 14:23:00,56.9,46.8,30.41,NNW,334,0.0,3.0,69,0.00,,,0.00,Wunderground v.1.15,2013-11-05 19:23:00,
2013-11-05 14:25:00,56.9,47.2,30.42,NE,56,0.0,3.0,70,0.00,,,0.00,Wunderground v.1.15,2013-11-05 19:25:00,
2013-11-05 14:26:00,56.9,47.2,30.42,NE,54,2.0,3.0,70,0.00,,,0.00,Wunderground v.1.15,2013-11-05 19:26:00,
2013-11-05 14:28:00,56.9,47.2,30.42,NE,34,1.0,3.0,70,0.00,,,0.00,Wunderground v.1.15,2013-11-05 19:28:00,
2013-11-05 14:31:00,56.8,47.1,30.42,NNW,344,1.0,1.0,70,0.00,,,0.00,Wunderground v.1.15,2013-11-05 19:31:00,
2013-11-05 14:32:00,56.8,47.1,30.42,NE,41,1.0,1.0,70,0.00,,,0.00,Wunderground v.1.15,2013-11-05 19:32:00,
2013-11-05 14:33:00,56.7,47.4,30.41,NE,44,0.0,1.0,71,0.00,,,0.00,Wunderground v.1.15,2013-11-05 19:33:00,
2013-11-05 14:34:00,56.7,47.4,30.41,NE,44,0.0,1.0,71,0.00,,,0.00,Wunderground v.1.15,2013-11-05 19:34:00,
2013-11-05 14:36:00,56.7,47.4,30.41,NE,43,0.0,2.0,71,0.00,,,0.00,Wunderground v.1.15,2013-11-05 19:36:00,
2013-11-05 14:37:00,56.7,47.4,30.41,NE,42,1.0,2.0,71,0.00,,,0.00,Wunderground v.1.15,2013-11-05 19:37:00,
2013-11-05 14:38:00,56.7,47.4,30.41,North,360,1.0,2.0,71,0.00,,,0.00,Wunderground v.1.15,2013-11-05 19:38:00,
2013-11-05 14:39:00,56.7,47.4,30.41,NNE,15,1.0,3.0,71,0.00,,,0.00,Wunderground v.1.15,2013-11-05 19:39:00,
2013-11-05 14:41:00,56.7,47.4,30.41,NNE,15,1.0,1.0,71,0.00,,,0.00,Wunderground v.1.15,2013-11-05 19:41:00,
2013-11-05 14:42:00,56.7,47.4,30.41,NNE,15,1.0,1.0,71,0.00,,,0.00,Wunderground v.1.15,2013-11-05 19:42:00,
2013-11-05 14:43:00,56.7,47.4,30.41,NNE,15,0.0,1.0,71,0.00,,,0.00,Wunderground v.1.15,2013-11-05 19:43:00,
2013-11-05 14:44:00,56.7,47.8,30.41,NNE,14,1.0,1.0,72,0.00,,,0.00,Wunderground v.1.15,2013-11-05 19:44:00,
2013-11-05 14:47:00,56.8,47.5,30.41,NNE,15,0.0,1.0,71,0.00,,,0.00,Wunderground v.1.15,2013-11-05 19:47:00,
2013-11-05 14:48:00,56.9,47.6,30.41,NE,42,1.0,2.0,71,0.00,,,0.00,Wunderground v.1.15,2013-11-05 19:48:00,
2013-11-05 14:49:00,57.0,47.7,30.41,ENE,61,2.0,2.0,71,0.00,,,0.00,Wunderground v.1.15,2013-11-05 19:49:00,
2013-11-05 14:52:00,57.0,47.7,30.41,North,6,0.0,1.0,71,0.00,,,0.00,Wunderground v.1.15,2013-11-05 19:52:00,
2013-11-05 14:53:00,57.1,47.8,30.41,North,6,1.0,2.0,71,0.00,,,0.00,Wunderground v.1.15,2013-11-05 19:53:00,
2013-11-05 14:54:00,57.1,47.8,30.41,NNW,338,0.0,2.0,71,0.00,,,0.00,Wunderground v.1.15,2013-11-05 19:54:00,
2013-11-05 14:55:00,57.1,47.8,30.41,NNW,338,1.0,2.0,71,0.00,,,0.00,Wunderground v.1.15,2013-11-05 19:55:00,
2013-11-05 14:57:00,57.2,47.9,30.41,NE,39,1.0,3.0,71,0.00,,,0.00,Wunderground v.1.15,2013-11-05 19:57:00,
2013-11-05 14:58:00,57.1,47.8,30.41,NE,41,2.0,3.0,71,0.00,,,0.00,Wunderground v.1.15,2013-11-05 19:58:00,
2013-11-05 14:59:00,57.1,47.8,30.41,North,357,0.0,3.0,71,0.00,,,0.00,Wunderground v.1.15,2013-11-05 19:59:00,
2013-11-05 15:00:00,57.1,47.8,30.41,North,356,0.0,3.0,71,0.00,,,0.00,Wunderground v.1.15,2013-11-05 20:00:00,
2013-11-05 15:03:00,57.1,47.8,30.41,North,356,1.0,1.0,71,0.00,,,0.00,Wunderground v.1.15,2013-11-05 20:03:00,
2013-11-05 15:04:00,57.1,47.8,30.41,North,356,0.0,1.0,71,0.00,,,0.00,Wunderground v.1.15,2013-11-05 20:04:00,
2013-11-05 15:05:00,57.1,47.8,30.41,NW,325,1.0,2.0,71,0.00,,,0.00,Wunderground v.1.15,2013-11-05 20:05:00,
2013-11-05 15:08:00,57.1,47.8,30.41,North,352,0.0,3.0,71,0.00,,,0.00,Wunderground v.1.15,2013-11-05 20:08:00,
2013-11-05 15:09:00,57.1,47.8,30.41,North,354,0.0,3.0,71,0.00,,,0.00,Wunderground v.1.15,2013-11-05 20:09:00,
2013-11-05 15:10:00,57.1,47.8,30.41,North,354,0.0,1.0,71,0.00,,,0.00,Wunderground v.1.15,2013-11-05 20:10:00,
2013-11-05 15:13:00,57.1,48.2,30.41,ENE,72,1.0,2.0,72,0.00,,,0.00,Wunderground v.1.15,2013-11-05 20:13:00,
2013-11-05 15:14:00,57.1,48.2,30.41,North,353,1.0,2.0,72,0.00,,,0.00,Wunderground v.1.15,2013-11-05 20:14:00,
2013-11-05 15:15:00,57.1,48.2,30.41,NNW,327,1.0,2.0,72,0.00,,,0.00,Wunderground v.1.15,2013-11-05 20:15:00,
2013-11-05 15:18:00,57.1,48.2,30.41,North,5,1.0,3.0,72,0.00,,,0.00,Wunderground v.1.15,2013-11-05 20:18:00,
2013-11-05 15:19:00,57.1,48.2,30.41,North,5,1.0,3.0,72,0.00,,,0.00,Wunderground v.1.15,2013-11-05 20:19:00,
2013-11-05 15:20:00,57.1,48.2,30.41,NNE,29,2.0,2.0,72,0.00,,,0.00,Wunderground v.1.15,2013-11-05 20:20:00,
2013-11-05 15:23:00,56.9,48.3,30.41,ENE,74,1.0,3.0,73,0.00,,,0.00,Wunderground v.1.15,2013-11-05 20:23:00,
2013-11-05 15:24:00,56.9,48.3,30.41,ENE,74,2.0,3.0,73,0.00,,,0.00,Wunderground v.1.15,2013-11-05 20:24:00,
2013-11-05 15:25:00,56.9,48.3,30.41,ENE,65,1.0,3.0,73,0.00,,,0.00,Wunderground v.1.15,2013-11-05 20:25:00,
2013-11-05 15:26:00,56.9,48.3,30.41,ENE,65,0.0,3.0,73,0.00,,,0.00,Wunderground v.1.15,2013-11-05 20:26:00,
2013-11-05 15:29:00,56.9,48.3,30.41,ENE,65,0.0,3.0,73,0.00,,,0.00,Wunderground v.1.15,2013-11-05 20:29:00,
2013-11-05 15:30:00,56.9,48.3,30.41,ENE,65,0.0,1.0,73,0.00,,,0.00,Wunderground v.1.15,2013-11-05 20:30:00,
2013-11-05 15:32:00,56.9,48.3,30.41,North,355,1.0,2.0,73,0.00,,,0.00,Wunderground v.1.15,2013-11-05 20:32:00,
2013-11-05 15:34:00,56.9,48.3,30.42,NNW,343,1.0,2.0,73,0.00,,,0.00,Wunderground v.1.15,2013-11-05 20:34:00,
2013-11-05 15:35:00,56.9,48.3,30.42,NNW,343,0.0,2.0,73,0.00,,,0.00,Wunderground v.1.15,2013-11-05 20:35:00,
2013-11-05 15:36:00,56.9,48.3,30.41,NNW,343,1.0,2.0,73,0.00,,,0.00,Wunderground v.1.15,2013-11-05 20:36:00,
2013-11-05 15:37:00,57.0,48.8,30.41,NNW,343,0.0,2.0,74,0.00,,,0.00,Wunderground v.1.15,2013-11-05 20:37:00,
2013-11-05 15:39:00,56.9,48.3,30.41,NNW,338,1.0,3.0,73,0.00,,,0.00,Wunderground v.1.15,2013-11-05 20:39:00,
2013-11-05 15:40:00,57.0,48.4,30.41,NNW,340,1.0,1.0,73,0.00,,,0.00,Wunderground v.1.15,2013-11-05 20:40:00,
2013-11-05 15:41:00,57.0,48.4,30.41,North,7,2.0,2.0,73,0.00,,,0.00,Wunderground v.1.15,2013-11-05 20:41:00,
2013-11-05 15:44:00,56.9,48.3,30.41,NW,321,1.0,2.0,73,0.00,,,0.00,Wunderground v.1.15,2013-11-05 20:44:00,
2013-11-05 15:45:00,56.8,48.6,30.41,ENE,70,1.0,2.0,74,0.00,,,0.00,Wunderground v.1.15,2013-11-05 20:45:00,
2013-11-05 15:46:00,56.8,48.6,30.41,ENE,74,2.0,2.0,74,0.00,,,0.00,Wunderground v.1.15,2013-11-05 20:46:00,
2013-11-05 15:49:00,56.7,48.5,30.41,ENE,73,0.0,2.0,74,0.00,,,0.00,Wunderground v.1.15,2013-11-05 20:49:00,
2013-11-05 15:50:00,56.7,48.5,30.41,NNE,24,2.0,2.0,74,0.00,,,0.00,Wunderground v.1.15,2013-11-05 20:50:00,
2013-11-05 15:51:00,56.7,48.5,30.41,North,1,2.0,2.0,74,0.00,,,0.00,Wunderground v.1.15,2013-11-05 20:51:00,
2013-11-05 15:54:00,56.7,48.5,30.41,NNW,334,1.0,2.0,74,0.00,,,0.00,Wunderground v.1.15,2013-11-05 20:54:00,
2013-11-05 15:55:00,56.7,48.5,30.41,NNW,336,1.0,2.0,74,0.00,,,0.00,Wunderground v.1.15,2013-11-05 20:55:00,
2013-11-05 15:56:00,56.7,48.5,30.41,NNW,346,1.0,2.0,74,0.00,,,0.00,Wunderground v.1.15,2013-11-05 20:56:00,
2013-11-05 16:00:00,56.7,48.5,30.41,NNE,18,1.0,2.0,74,0.00,,,0.00,Wunderground v.1.15,2013-11-05 21:00:00,
2013-11-05 16:01:00,56.7,48.5,30.41,ENE,75,1.0,3.0,74,0.00,,,0.00,Wunderground v.1.15,2013-11-05 21:01:00,
2013-11-05 16:05:00,56.7,48.5,30.41,North,3,1.0,5.0,74,0.00,,,0.00,Wunderground v.1.15,2013-11-05 21:05:00,
2013-11-05 16:06:00,56.7,48.5,30.42,North,1,0.0,5.0,74,0.00,,,0.00,Wunderground v.1.15,2013-11-05 21:06:00,
2013-11-05 16:10:00,56.8,49.0,30.41,NW,318,1.0,2.0,75,0.00,,,0.00,Wunderground v.1.15,2013-11-05 21:10:00,
2013-11-05 16:11:00,56.8,49.0,30.41,NW,319,1.0,2.0,75,0.00,,,0.00,Wunderground v.1.15,2013-11-05 21:11:00,
2013-11-05 16:15:00,56.7,48.5,30.41,North,349,1.0,2.0,74,0.00,,,0.00,Wunderground v.1.15,2013-11-05 21:15:00,
2013-11-05 16:16:00,56.6,48.4,30.41,North,349,0.0,2.0,74,0.00,,,0.00,Wunderground v.1.15,2013-11-05 21:16:00,
2013-11-05 16:17:00,56.6,48.4,30.41,North,349,0.0,2.0,74,0.00,,,0.00,Wunderground v.1.15,2013-11-05 21:17:00,
2013-11-05 16:20:00,56.6,48.8,30.41,North,350,0.0,0.0,75,0.00,,,0.00,Wunderground v.1.15,2013-11-05 21:20:00,
2013-11-05 16:21:00,56.5,48.7,30.41,North,351,0.0,0.0,75,0.00,,,0.00,Wunderground v.1.15,2013-11-05 21:21:00,
2013-11-05 16:22:00,56.5,48.7,30.41,North,351,1.0,1.0,75,0.00,,,0.00,Wunderground v.1.15,2013-11-05 21:22:00,
2013-11-05 16:23:00,56.5,48.7,30.41,North,352,0.0,1.0,75,0.00,,,0.00,Wunderground v.1.15,2013-11-05 21:23:00,
2013-11-05 16:26:00,56.4,48.6,30.41,North,351,0.0,1.0,75,0.00,,,0.00,Wunderground v.1.15,2013-11-05 21:26:00,
2013-11-05 16:27:00,56.4,48.6,30.41,North,352,0.0,1.0,75,0.00,,,0.00,Wunderground v.1.15,2013-11-05 21:27:00,
2013-11-05 16:29:00,56.3,48.5,30.41,North,351,0.0,1.0,75,0.00,,,0.00,Wunderground v.1.15,2013-11-05 21:29:00,
2013-11-05 16:31:00,56.3,48.8,30.41,North,351,1.0,1.0,76,0.00,,,0.00,Wunderground v.1.15,2013-11-05 21:31:00,
2013-11-05 16:32:00,56.3,48.8,30.41,North,3,1.0,2.0,76,0.00,,,0.00,Wunderground v.1.15,2013-11-05 21:32:00,
2013-11-05 16:33:00,56.3,48.8,30.41,North,1,1.0,2.0,76,0.00,,,0.00,Wunderground v.1.15,2013-11-05 21:33:00,
2013-11-05 16:34:00,56.3,48.8,30.41,North,3,0.0,2.0,76,0.00,,,0.00,Wunderground v.1.15,2013-11-05 21:34:00,
2013-11-05 16:36:00,56.2,48.7,30.41,North,4,0.0,2.0,76,0.00,,,0.00,Wunderground v.1.15,2013-11-05 21:36:00,
2013-11-05 16:37:00,56.2,48.7,30.41,North,1,0.0,2.0,76,0.00,,,0.00,Wunderground v.1.15,2013-11-05 21:37:00,
2013-11-05 16:38:00,56.2,48.7,30.41,North,354,1.0,2.0,76,0.00,,,0.00,Wunderground v.1.15,2013-11-05 21:38:00,
2013-11-05 16:39:00,56.2,48.7,30.41,North,354,0.0,2.0,76,0.00,,,0.00,Wunderground v.1.15,2013-11-05 21:39:00,
2013-11-05 16:41:00,56.1,48.6,30.41,NNW,340,0.0,1.0,76,0.00,,,0.00,Wunderground v.1.15,2013-11-05 21:41:00,
2013-11-05 16:42:00,56.1,48.6,30.41,NNW,340,1.0,1.0,76,0.00,,,0.00,Wunderground v.1.15,2013-11-05 21:42:00,
2013-11-05 16:43:00,56.1,48.6,30.41,North,358,1.0,3.0,76,0.00,,,0.00,Wunderground v.1.15,2013-11-05 21:43:00,
2013-11-05 16:44:00,56.1,48.3,30.41,North,358,1.0,3.0,75,0.00,,,0.00,Wunderground v.1.15,2013-11-05 21:44:00,
2013-11-05 16:45:00,56.1,48.3,30.41,North,359,1.0,3.0,75,0.00,,,0.00,Wunderground v.1.15,2013-11-05 21:45:00,
2013-11-05 16:47:00,56.0,48.5,30.41,North,358,0.0,3.0,76,0.00,,,0.00,Wunderground v.1.15,2013-11-05 21:47:00,
2013-11-05 16:48:00,56.0,48.5,30.41,East,83,0.0,3.0,76,0.00,,,0.00,Wunderground v.1.15,2013-11-05 21:48:00,
2013-11-05 16:50:00,56.0,48.5,30.41,East,83,0.0,1.0,76,0.00,,,0.00,Wunderground v.1.15,2013-11-05 21:50:00,
2013-11-05 16:52:00,56.0,48.5,30.41,NW,326,0.0,2.0,76,0.00,,,0.00,Wunderground v.1.15,2013-11-05 21:52:00,
2013-11-05 16:53:00,55.9,48.4,30.41,NW,326,0.0,2.0,76,0.00,,,0.00,Wunderground v.1.15,2013-11-05 21:53:00,
2013-11-05 16:54:00,55.9,48.4,30.41,NW,326,0.0,2.0,76,0.00,,,0.00,Wunderground v.1.15,2013-11-05 21:54:00,
2013-11-05 16:55:00,55.9,48.4,30.41,NW,326,0.0,2.0,76,0.00,,,0.00,Wunderground v.1.15,2013-11-05 21:55:00,
2013-11-05 16:57:00,55.9,48.4,30.41,NW,326,0.0,2.0,76,0.00,,,0.00,Wunderground v.1.15,2013-11-05 21:57:00,
2013-11-05 16:58:00,55.9,48.4,30.41,NW,326,0.0,2.0,76,0.00,,,0.00,Wunderground v.1.15,2013-11-05 21:58:00,
2013-11-05 16:59:00,55.8,48.3,30.41,NW,326,0.0,2.0,76,0.00,,,0.00,Wunderground v.1.15,2013-11-05 21:59:00,
2013-11-05 17:01:00,55.8,48.3,30.41,North,11,2.0,3.0,76,0.00,,,0.00,Wunderground v.1.15,2013-11-05 22:01:00,
2013-11-05 17:02:00,55.8,48.3,30.41,North,11,0.0,3.0,76,0.00,,,0.00,Wunderground v.1.15,2013-11-05 22:02:00,
2013-11-05 17:03:00,55.8,48.3,30.41,NNW,340,0.0,3.0,76,0.00,,,0.00,Wunderground v.1.15,2013-11-05 22:03:00,
2013-11-05 17:05:00,55.8,48.3,30.41,NNW,338,0.0,3.0,76,0.00,,,0.00,Wunderground v.1.15,2013-11-05 22:05:00,
2013-11-05 17:06:00,55.8,48.3,30.41,NNW,339,0.0,3.0,76,0.00,,,0.00,Wunderground v.1.15,2013-11-05 22:06:00,
2013-11-05 17:07:00,55.7,48.6,30.41,NNW,338,0.0,3.0,77,0.00,,,0.00,Wunderground v.1.15,2013-11-05 22:07:00,
2013-11-05 17:08:00,55.7,48.2,30.41,NNW,338,1.0,3.0,76,0.00,,,0.00,Wunderground v.1.15,2013-11-05 22:08:00,
2013-11-05 17:10:00,55.7,48.6,30.41,NNW,338,0.0,0.0,77,0.00,,,0.00,Wunderground v.1.15,2013-11-05 22:10:00,
2013-11-05 17:11:00,55.7,48.6,30.41,NNW,338,0.0,0.0,77,0.00,,,0.00,Wunderground v.1.15,2013-11-05 22:11:00,
2013-11-05 17:12:00,55.7,48.6,30.41,NNW,338,0.0,0.0,77,0.00,,,0.00,Wunderground v.1.15,2013-11-05 22:12:00,
2013-11-05 17:13:00,55.7,48.6,30.41,NNW,338,0.0,0.0,77,0.00,,,0.00,Wunderground v.1.15,2013-11-05 22:13:00,
2013-11-05 17:14:00,55.7,48.6,30.41,NNW,338,0.0,0.0,77,0.00,,,0.00,Wunderground v.1.15,2013-11-05 22:14:00,
2013-11-05 17:16:00,55.6,48.5,30.41,NNW,338,0.0,1.0,77,0.00,,,0.00,Wunderground v.1.15,2013-11-05 22:16:00,
2013-11-05 17:17:00,55.6,48.5,30.41,NNW,338,0.0,1.0,77,0.00,,,0.00,Wunderground v.1.15,2013-11-05 22:17:00,
2013-11-05 17:18:00,55.6,48.5,30.41,NNW,337,0.0,1.0,77,0.00,,,0.00,Wunderground v.1.15,2013-11-05 22:18:00,
2013-11-05 17:19:00,55.5,48.4,30.41,NNW,338,0.0,1.0,77,0.00,,,0.00,Wunderground v.1.15,2013-11-05 22:19:00,
2013-11-05 17:21:00,55.5,48.4,30.41,NNW,337,0.0,1.0,77,0.00,,,0.00,Wunderground v.1.15,2013-11-05 22:21:00,
2013-11-05 17:22:00,55.5,48.4,30.41,NNW,338,0.0,1.0,77,0.00,,,0.00,Wunderground v.1.15,2013-11-05 22:22:00,
2013-11-05 17:23:00,55.5,48.8,30.41,NNW,338,0.0,1.0,78,0.00,,,0.00,Wunderground v.1.15,2013-11-05 22:23:00,
2013-11-05 17:25:00,55.4,48.7,30.41,NNW,338,0.0,1.0,78,0.00,,,0.00,Wunderground v.1.15,2013-11-05 22:25:00,
2013-11-05 17:26:00,55.4,48.7,30.41,NNW,338,0.0,1.0,78,0.00,,,0.00,Wunderground v.1.15,2013-11-05 22:26:00,
2013-11-05 17:27:00,55.3,48.6,30.41,NNW,338,0.0,1.0,78,0.00,,,0.00,Wunderground v.1.15,2013-11-05 22:27:00,
2013-11-05 17:28:00,55.3,48.6,30.41,NNW,338,0.0,1.0,78,0.00,,,0.00,Wunderground v.1.15,2013-11-05 22:28:00,
2013-11-05 17:29:00,55.3,48.6,30.41,NNW,338,0.0,1.0,78,0.00,,,0.00,Wunderground v.1.15,2013-11-05 22:29:00,
2013-11-05 17:30:00,55.3,48.6,30.41,NNW,338,0.0,0.0,78,0.00,,,0.00,Wunderground v.1.15,2013-11-05 22:30:00,
2013-11-05 17:32:00,55.2,48.5,30.41,NNW,337,0.0,0.0,78,0.00,,,0.00,Wunderground v.1.15,2013-11-05 22:32:00,
2013-11-05 17:33:00,55.2,48.5,30.41,NNW,337,0.0,0.0,78,0.00,,,0.00,Wunderground v.1.15,2013-11-05 22:33:00,
2013-11-05 17:34:00,55.2,48.5,30.41,NNW,338,0.0,0.0,78,0.00,,,0.00,Wunderground v.1.15,2013-11-05 22:34:00,
2013-11-05 17:35:00,55.1,48.7,30.41,NNW,338,0.0,0.0,79,0.00,,,0.00,Wunderground v.1.15,2013-11-05 22:35:00,
2013-11-05 17:37:00,55.1,48.7,30.41,NNW,337,0.0,0.0,79,0.00,,,0.00,Wunderground v.1.15,2013-11-05 22:37:00,
2013-11-05 17:38:00,55.0,48.6,30.41,NNW,338,0.0,0.0,79,0.00,,,0.00,Wunderground v.1.15,2013-11-05 22:38:00,
2013-11-05 17:39:00,55.0,48.6,30.41,NNW,338,0.0,0.0,79,0.00,,,0.00,Wunderground v.1.15,2013-11-05 22:39:00,
2013-11-05 17:40:00,55.0,48.6,30.41,NNW,338,0.0,0.0,79,0.00,,,0.00,Wunderground v.1.15,2013-11-05 22:40:00,
2013-11-05 17:42:00,54.9,48.8,30.41,NNW,337,0.0,0.0,80,0.00,,,0.00,Wunderground v.1.15,2013-11-05 22:42:00,
2013-11-05 17:43:00,54.9,48.8,30.41,NNW,338,0.0,0.0,80,0.00,,,0.00,Wunderground v.1.15,2013-11-05 22:43:00,
2013-11-05 17:44:00,54.9,48.8,30.41,NNW,338,0.0,0.0,80,0.00,,,0.00,Wunderground v.1.15,2013-11-05 22:44:00,
2013-11-05 17:45:00,54.9,48.8,30.41,NNW,338,0.0,0.0,80,0.00,,,0.00,Wunderground v.1.15,2013-11-05 22:45:00,
2013-11-05 17:48:00,54.8,48.7,30.41,NNW,338,0.0,0.0,80,0.00,,,0.00,Wunderground v.1.15,2013-11-05 22:48:00,
2013-11-05 17:49:00,54.7,48.6,30.41,NNW,338,0.0,0.0,80,0.00,,,0.00,Wunderground v.1.15,2013-11-05 22:49:00,
2013-11-05 17:50:00,54.7,48.6,30.41,NNW,338,0.0,1.0,80,0.00,,,0.00,Wunderground v.1.15,2013-11-05 22:50:00,
2013-11-05 17:51:00,54.7,48.6,30.41,NNW,337,0.0,1.0,80,0.00,,,0.00,Wunderground v.1.15,2013-11-05 22:51:00,
2013-11-05 17:53:00,54.6,48.6,30.41,NNW,338,0.0,1.0,80,0.00,,,0.00,Wunderground v.1.15,2013-11-05 22:53:00,
2013-11-05 17:54:00,54.6,48.9,30.41,NNW,338,0.0,1.0,81,0.00,,,0.00,Wunderground v.1.15,2013-11-05 22:54:00,
2013-11-05 17:56:00,54.6,48.9,30.41,NNW,338,0.0,1.0,81,0.00,,,0.00,Wunderground v.1.15,2013-11-05 22:56:00,
2013-11-05 17:58:00,54.5,48.8,30.41,NNW,337,0.0,1.0,81,0.00,,,0.00,Wunderground v.1.15,2013-11-05 22:58:00,
2013-11-05 17:59:00,54.5,48.8,30.41,NNW,338,0.0,1.0,81,0.00,,,0.00,Wunderground v.1.15,2013-11-05 22:59:00,
2013-11-05 18:01:00,54.5,48.8,30.41,NNW,337,0.0,0.0,81,0.00,,,0.00,Wunderground v.1.15,2013-11-05 23:01:00,
2013-11-05 18:03:00,54.4,48.7,30.41,NNW,338,0.0,0.0,81,0.00,,,0.00,Wunderground v.1.15,2013-11-05 23:03:00,
2013-11-05 18:04:00,54.4,48.7,30.41,NNW,338,0.0,0.0,81,0.00,,,0.00,Wunderground v.1.15,2013-11-05 23:04:00,
2013-11-05 18:05:00,54.4,48.7,30.41,NNW,338,0.0,0.0,81,0.00,,,0.00,Wunderground v.1.15,2013-11-05 23:05:00,
2013-11-05 18:06:00,54.4,48.7,30.41,NNW,337,0.0,0.0,81,0.00,,,0.00,Wunderground v.1.15,2013-11-05 23:06:00,
2013-11-05 18:07:00,54.4,48.7,30.41,NNW,337,0.0,0.0,81,0.00,,,0.00,Wunderground v.1.15,2013-11-05 23:07:00,
2013-11-05 18:09:00,54.4,49.0,30.42,NNW,338,0.0,0.0,82,0.00,,,0.00,Wunderground v.1.15,2013-11-05 23:09:00,
2013-11-05 18:11:00,54.4,49.0,30.41,NNW,338,0.0,0.0,82,0.00,,,0.00,Wunderground v.1.15,2013-11-05 23:11:00,
2013-11-05 18:12:00,54.4,49.0,30.42,NNW,338,0.0,0.0,82,0.00,,,0.00,Wunderground v.1.15,2013-11-05 23:12:00,
2013-11-05 18:14:00,54.3,48.9,30.41,NNW,338,0.0,0.0,82,0.00,,,0.00,Wunderground v.1.15,2013-11-05 23:14:00,
2013-11-05 18:16:00,54.3,48.9,30.42,NNW,338,0.0,0.0,82,0.00,,,0.00,Wunderground v.1.15,2013-11-05 23:16:00,
2013-11-05 18:18:00,54.3,48.9,30.42,NNW,338,0.0,0.0,82,0.00,,,0.00,Wunderground v.1.15,2013-11-05 23:18:00,
2013-11-05 18:19:00,54.3,48.9,30.42,NNW,338,0.0,0.0,82,0.00,,,0.00,Wunderground v.1.15,2013-11-05 23:19:00,
2013-11-05 18:20:00,54.2,48.8,30.42,NNW,338,0.0,0.0,82,0.00,,,0.00,Wunderground v.1.15,2013-11-05 23:20:00,
2013-11-05 18:21:00,54.2,48.8,30.42,NNW,337,0.0,0.0,82,0.00,,,0.00,Wunderground v.1.15,2013-11-05 23:21:00,
2013-11-05 18:22:00,54.2,48.8,30.42,NNW,338,0.0,0.0,82,0.00,,,0.00,Wunderground v.1.15,2013-11-05 23:22:00,
2013-11-05 18:24:00,54.2,48.8,30.42,NNW,338,0.0,0.0,82,0.00,,,0.00,Wunderground v.1.15,2013-11-05 23:24:00,
2013-11-05 18:25:00,54.2,48.8,30.42,NNW,338,0.0,0.0,82,0.00,,,0.00,Wunderground v.1.15,2013-11-05 23:25:00,
2013-11-05 18:26:00,54.2,49.1,30.42,NNW,334,0.0,1.0,83,0.00,,,0.00,Wunderground v.1.15,2013-11-05 23:26:00,
2013-11-05 18:27:00,54.2,49.1,30.42,NNW,334,1.0,1.0,83,0.00,,,0.00,Wunderground v.1.15,2013-11-05 23:27:00,
2013-11-05 18:29:00,54.2,49.1,30.42,NNW,335,0.0,1.0,83,0.00,,,0.00,Wunderground v.1.15,2013-11-05 23:29:00,
2013-11-05 18:30:00,54.2,49.1,30.42,NNW,335,0.0,0.0,83,0.00,,,0.00,Wunderground v.1.15,2013-11-05 23:30:00,
2013-11-05 18:31:00,54.2,49.1,30.42,NNW,334,0.0,0.0,83,0.00,,,0.00,Wunderground v.1.15,2013-11-05 23:31:00,
2013-11-05 18:32:00,54.1,49.1,30.42,NNW,335,0.0,0.0,83,0.00,,,0.00,Wunderground v.1.15,2013-11-05 23:32:00,
2013-11-05 18:34:00,54.1,49.1,30.42,NNW,334,0.0,0.0,83,0.00,,,0.00,Wunderground v.1.15,2013-11-05 23:34:00,
2013-11-05 18:35:00,54.1,49.1,30.42,NNW,334,0.0,0.0,83,0.00,,,0.00,Wunderground v.1.15,2013-11-05 23:35:00,
2013-11-05 18:37:00,54.1,49.1,30.42,NNW,335,0.0,0.0,83,0.00,,,0.00,Wunderground v.1.15,2013-11-05 23:37:00,
2013-11-05 18:39:00,54.0,49.0,30.42,NNW,335,0.0,1.0,83,0.00,,,0.00,Wunderground v.1.15,2013-11-05 23:39:00,
2013-11-05 18:40:00,54.0,49.0,30.42,NNW,335,0.0,0.0,83,0.00,,,0.00,Wunderground v.1.15,2013-11-05 23:40:00,
2013-11-05 18:41:00,54.0,49.0,30.42,NNW,335,0.0,0.0,83,0.00,,,0.00,Wunderground v.1.15,2013-11-05 23:41:00,
2013-11-05 18:42:00,54.0,49.0,30.41,NNW,334,0.0,0.0,83,0.00,,,0.00,Wunderground v.1.15,2013-11-05 23:42:00,
2013-11-05 18:43:00,54.0,49.0,30.42,NNW,335,0.0,0.0,83,0.00,,,0.00,Wunderground v.1.15,2013-11-05 23:43:00,
2013-11-05 18:44:00,54.0,49.0,30.42,NNW,334,0.0,0.0,83,0.00,,,0.00,Wunderground v.1.15,2013-11-05 23:44:00,
2013-11-05 18:45:00,54.0,49.0,30.41,NNW,335,0.0,0.0,83,0.00,,,0.00,Wunderground v.1.15,2013-11-05 23:45:00,
2013-11-05 18:46:00,54.0,49.0,30.42,NNW,334,0.0,0.0,83,0.00,,,0.00,Wunderground v.1.15,2013-11-05 23:46:00,
2013-11-05 18:47:00,54.0,49.0,30.42,NNW,335,0.0,0.0,83,0.00,,,0.00,Wunderground v.1.15,2013-11-05 23:47:00,
2013-11-05 18:48:00,54.0,49.0,30.42,NNW,334,0.0,0.0,83,0.00,,,0.00,Wunderground v.1.15,2013-11-05 23:48:00,
2013-11-05 18:50:00,54.0,49.0,30.42,NNW,335,0.0,0.0,83,0.00,,,0.00,Wunderground v.1.15,2013-11-05 23:50:00,
2013-11-05 18:52:00,54.0,49.0,30.42,NNW,335,0.0,1.0,83,0.00,,,0.00,Wunderground v.1.15,2013-11-05 23:52:00,
2013-11-05 18:53:00,54.1,49.1,30.41,NNW,335,0.0,1.0,83,0.00,,,0.00,Wunderground v.1.15,2013-11-05 23:53:00,
2013-11-05 18:55:00,54.0,49.0,30.42,NNW,336,0.0,1.0,83,0.00,,,0.00,Wunderground v.1.15,2013-11-05 23:55:00,
2013-11-05 18:56:00,54.1,49.1,30.41,NNW,335,0.0,1.0,83,0.00,,,0.00,Wunderground v.1.15,2013-11-05 23:56:00,
2013-11-05 18:57:00,54.1,49.1,30.41,NNW,336,0.0,1.0,83,0.00,,,0.00,Wunderground v.1.15,2013-11-05 23:57:00,
2013-11-05 18:58:00,54.1,49.1,30.41,NNW,336,0.0,1.0,83,0.00,,,0.00,Wunderground v.1.15,2013-11-05 23:58:00,
2013-11-05 18:59:00,54.1,49.1,30.41,NNW,335,0.0,1.0,83,0.00,,,0.00,Wunderground v.1.15,2013-11-05 23:59:00,
2013-11-05 19:00:00,54.1,49.1,30.41,NNW,336,0.0,0.0,83,0.00,,,0.00,Wunderground v.1.15,2013-11-06 00:00:00,
2013-11-05 19:01:00,54.1,49.1,30.41,NNW,336,0.0,0.0,83,0.00,,,0.00,Wunderground v.1.15,2013-11-06 00:01:00,
2013-11-05 19:03:00,54.1,49.1,30.41,NNW,335,0.0,0.0,83,0.00,,,0.00,Wunderground v.1.15,2013-11-06 00:03:00,
2013-11-05 19:04:00,54.1,49.1,30.41,NNW,335,0.0,0.0,83,0.00,,,0.00,Wunderground v.1.15,2013-11-06 00:04:00,
2013-11-05 19:05:00,54.2,49.1,30.41,NNW,336,0.0,1.0,83,0.00,,,0.00,Wunderground v.1.15,2013-11-06 00:05:00,
2013-11-05 19:06:00,54.2,49.1,30.41,NNW,335,0.0,1.0,83,0.00,,,0.00,Wunderground v.1.15,2013-11-06 00:06:00,
2013-11-05 19:08:00,54.2,49.1,30.41,NNW,335,1.0,1.0,83,0.00,,,0.00,Wunderground v.1.15,2013-11-06 00:08:00,
2013-11-05 19:09:00,54.2,49.1,30.41,NNW,335,0.0,1.0,83,0.00,,,0.00,Wunderground v.1.15,2013-11-06 00:09:00,
2013-11-05 19:10:00,54.2,49.1,30.41,NNW,336,0.0,0.0,83,0.00,,,0.00,Wunderground v.1.15,2013-11-06 00:10:00,
2013-11-05 19:11:00,54.3,48.9,30.41,NNW,336,0.0,0.0,82,0.00,,,0.00,Wunderground v.1.15,2013-11-06 00:11:00,
2013-11-05 19:13:00,54.3,48.9,30.41,WNW,285,1.0,3.0,82,0.00,,,0.00,Wunderground v.1.15,2013-11-06 00:13:00,
2013-11-05 19:14:00,54.3,48.9,30.41,WNW,285,0.0,3.0,82,0.00,,,0.00,Wunderground v.1.15,2013-11-06 00:14:00,
2013-11-05 19:15:00,54.4,49.0,30.41,WNW,285,0.0,3.0,82,0.00,,,0.00,Wunderground v.1.15,2013-11-06 00:15:00,
2013-11-05 19:16:00,54.4,49.0,30.41,WNW,285,0.0,3.0,82,0.00,,,0.00,Wunderground v.1.15,2013-11-06 00:16:00,
2013-11-05 19:18:00,54.4,49.0,30.41,WNW,285,0.0,3.0,82,0.00,,,0.00,Wunderground v.1.15,2013-11-06 00:18:00,
2013-11-05 19:19:00,54.4,49.0,30.41,WNW,285,1.0,3.0,82,0.00,,,0.00,Wunderground v.1.15,2013-11-06 00:19:00,
2013-11-05 19:20:00,54.5,49.1,30.41,WNW,285,0.0,0.0,82,0.00,,,0.00,Wunderground v.1.15,2013-11-06 00:20:00,
2013-11-05 19:21:00,54.5,49.1,30.41,WNW,285,0.0,0.0,82,0.00,,,0.00,Wunderground v.1.15,2013-11-06 00:21:00,
2013-11-05 19:24:00,54.5,49.1,30.41,WNW,285,0.0,0.0,82,0.00,,,0.00,Wunderground v.1.15,2013-11-06 00:24:00,
2013-11-05 19:25:00,54.5,49.1,30.41,WNW,285,0.0,1.0,82,0.00,,,0.00,Wunderground v.1.15,2013-11-06 00:25:00,
2013-11-05 19:26:00,54.5,49.1,30.41,WNW,285,0.0,1.0,82,0.00,,,0.00,Wunderground v.1.15,2013-11-06 00:26:00,
2013-11-05 19:27:00,54.5,49.1,30.41,North,355,1.0,1.0,82,0.00,,,0.00,Wunderground v.1.15,2013-11-06 00:27:00,
2013-11-05 19:29:00,54.6,49.2,30.41,ENE,60,0.0,1.0,82,0.00,,,0.00,Wunderground v.1.15,2013-11-06 00:29:00,
2013-11-05 19:30:00,54.6,49.2,30.41,ENE,61,0.0,0.0,82,0.00,,,0.00,Wunderground v.1.15,2013-11-06 00:30:00,
2013-11-05 19:31:00,54.6,49.2,30.41,ENE,59,1.0,1.0,82,0.00,,,0.00,Wunderground v.1.15,2013-11-06 00:31:00,
2013-11-05 19:32:00,54.5,49.1,30.41,ENE,59,0.0,1.0,82,0.00,,,0.00,Wunderground v.1.15,2013-11-06 00:32:00,
2013-11-05 19:34:00,54.6,49.2,30.41,ENE,61,1.0,1.0,82,0.00,,,0.00,Wunderground v.1.15,2013-11-06 00:34:00,
2013-11-05 19:35:00,54.6,49.2,30.41,ENE,61,0.0,1.0,82,0.00,,,0.00,Wunderground v.1.15,2013-11-06 00:35:00,
2013-11-05 19:36:00,54.6,49.2,30.41,ENE,61,0.0,1.0,82,0.00,,,0.00,Wunderground v.1.15,2013-11-06 00:36:00,
2013-11-05 19:37:00,54.6,49.2,30.41,ENE,60,0.0,1.0,82,0.00,,,0.00,Wunderground v.1.15,2013-11-06 00:37:00,
2013-11-05 19:40:00,54.6,49.2,30.42,ENE,59,0.0,0.0,82,0.00,,,0.00,Wunderground v.1.15,2013-11-06 00:40:00,
2013-11-05 19:41:00,54.6,49.2,30.41,ENE,60,1.0,1.0,82,0.00,,,0.00,Wunderground v.1.15,2013-11-06 00:41:00,
2013-11-05 19:42:00,54.6,49.2,30.42,ENE,58,1.0,1.0,82,0.00,,,0.00,Wunderground v.1.15,2013-11-06 00:42:00,
2013-11-05 19:45:00,54.6,49.2,30.42,NE,56,1.0,1.0,82,0.00,,,0.00,Wunderground v.1.15,2013-11-06 00:45:00,
2013-11-05 19:46:00,54.6,49.2,30.41,NE,56,1.0,1.0,82,0.00,,,0.00,Wunderground v.1.15,2013-11-06 00:46:00,
2013-11-05 19:47:00,54.6,49.2,30.42,NE,55,1.0,1.0,82,0.00,,,0.00,Wunderground v.1.15,2013-11-06 00:47:00,
2013-11-05 19:50:00,54.7,49.3,30.41,NE,56,1.0,1.0,82,0.00,,,0.00,Wunderground v.1.15,2013-11-06 00:50:00,
2013-11-05 19:51:00,54.7,49.3,30.41,NE,56,1.0,1.0,82,0.00,,,0.00,Wunderground v.1.15,2013-11-06 00:51:00,
2013-11-05 19:52:00,54.7,49.3,30.41,NE,55,0.0,1.0,82,0.00,,,0.00,Wunderground v.1.15,2013-11-06 00:52:00,
2013-11-05 19:55:00,54.7,49.3,30.41,NE,55,0.0,1.0,82,0.00,,,0.00,Wunderground v.1.15,2013-11-06 00:55:00,
2013-11-05 19:56:00,54.7,49.3,30.41,ENE,64,2.0,2.0,82,0.00,,,0.00,Wunderground v.1.15,2013-11-06 00:56:00,
2013-11-05 19:57:00,54.7,49.3,30.41,ENE,63,0.0,2.0,82,0.00,,,0.00,Wunderground v.1.15,2013-11-06 00:57:00,
2013-11-05 20:01:00,54.7,49.3,30.41,ENE,72,0.0,1.0,82,0.00,,,0.00,Wunderground v.1.15,2013-11-06 01:01:00,
2013-11-05 20:02:00,54.7,49.3,30.41,ENE,72,1.0,1.0,82,0.00,,,0.00,Wunderground v.1.15,2013-11-06 01:02:00,
2013-11-05 20:03:00,54.8,49.4,30.41,ENE,72,1.0,1.0,82,0.00,,,0.00,Wunderground v.1.15,2013-11-06 01:03:00,
2013-11-05 20:07:00,54.8,49.4,30.41,ENE,76,0.0,2.0,82,0.00,,,0.00,Wunderground v.1.15,2013-11-06 01:07:00,
2013-11-05 20:08:00,54.8,49.4,30.41,ENE,76,0.0,2.0,82,0.00,,,0.00,Wunderground v.1.15,2013-11-06 01:08:00,
2013-11-05 20:12:00,54.8,49.4,30.41,ENE,76,0.0,1.0,82,0.00,,,0.00,Wunderground v.1.15,2013-11-06 01:12:00,
2013-11-05 20:13:00,54.8,49.4,30.41,NNE,21,1.0,1.0,82,0.00,,,0.00,Wunderground v.1.15,2013-11-06 01:13:00,
2013-11-05 20:17:00,54.8,49.4,30.41,NNE,24,0.0,1.0,82,0.00,,,0.00,Wunderground v.1.15,2013-11-06 01:17:00,
2013-11-05 20:18:00,54.8,49.4,30.41,NNE,24,1.0,1.0,82,0.00,,,0.00,Wunderground v.1.15,2013-11-06 01:18:00,
2013-11-05 20:23:00,54.8,49.4,30.41,NNW,334,0.0,1.0,82,0.00,,,0.00,Wunderground v.1.15,2013-11-06 01:23:00,
2013-11-05 20:28:00,54.7,49.6,30.41,NNW,334,0.0,1.0,83,0.00,,,0.00,Wunderground v.1.15,2013-11-06 01:28:00,
2013-11-05 20:29:00,54.7,49.6,30.41,NNW,334,0.0,1.0,83,0.00,,,0.00,Wunderground v.1.15,2013-11-06 01:29:00,
2013-11-05 20:33:00,54.7,49.6,30.41,NNW,337,0.0,1.0,83,0.00,,,0.00,Wunderground v.1.15,2013-11-06 01:33:00,
2013-11-05 20:34:00,54.7,49.6,30.41,NNW,338,0.0,1.0,83,0.00,,,0.00,Wunderground v.1.15,2013-11-06 01:34:00,
2013-11-05 20:38:00,54.7,49.6,30.41,NNW,335,0.0,2.0,83,0.00,,,0.00,Wunderground v.1.15,2013-11-06 01:38:00,
2013-11-05 20:39:00,54.7,49.6,30.41,NNW,335,0.0,2.0,83,0.00,,,0.00,Wunderground v.1.15,2013-11-06 01:39:00,
2013-11-05 20:40:00,54.7,49.6,30.41,NNW,335,0.0,2.0,83,0.00,,,0.00,Wunderground v.1.15,2013-11-06 01:40:00,
2013-11-05 20:43:00,54.7,49.6,30.41,North,358,1.0,5.0,83,0.00,,,0.00,Wunderground v.1.15,2013-11-06 01:43:00,
2013-11-05 20:44:00,54.7,49.6,30.41,North,358,0.0,5.0,83,0.00,,,0.00,Wunderground v.1.15,2013-11-06 01:44:00,
2013-11-05 20:45:00,54.7,49.6,30.42,North,359,0.0,5.0,83,0.00,,,0.00,Wunderground v.1.15,2013-11-06 01:45:00,
2013-11-05 20:48:00,54.7,49.6,30.41,North,358,0.0,5.0,83,0.00,,,0.00,Wunderground v.1.15,2013-11-06 01:48:00,
2013-11-05 20:49:00,54.7,49.6,30.41,North,359,0.0,5.0,83,0.00,,,0.00,Wunderground v.1.15,2013-11-06 01:49:00,
2013-11-05 20:50:00,54.7,49.6,30.41,NNW,343,0.0,1.0,83,0.00,,,0.00,Wunderground v.1.15,2013-11-06 01:50:00,
2013-11-05 20:54:00,54.6,49.5,30.41,NNW,342,0.0,1.0,83,0.00,,,0.00,Wunderground v.1.15,2013-11-06 01:54:00,
2013-11-05 20:55:00,54.6,49.5,30.41,NNW,342,0.0,1.0,83,0.00,,,0.00,Wunderground v.1.15,2013-11-06 01:55:00,
2013-11-05 20:56:00,54.6,49.5,30.41,NNW,343,0.0,1.0,83,0.00,,,0.00,Wunderground v.1.15,2013-11-06 01:56:00,
2013-11-05 20:59:00,54.6,49.5,30.41,NNW,343,0.0,1.0,83,0.00,,,0.00,Wunderground v.1.15,2013-11-06 01:59:00,
2013-11-05 21:00:00,54.6,49.5,30.41,NNW,343,0.0,0.0,83,0.00,,,0.00,Wunderground v.1.15,2013-11-06 02:00:00,
2013-11-05 21:01:00,54.6,49.5,30.41,NNW,343,0.0,0.0,83,0.00,,,0.00,Wunderground v.1.15,2013-11-06 02:01:00,
2013-11-05 21:04:00,54.5,49.4,30.41,NNW,343,0.0,0.0,83,0.00,,,0.00,Wunderground v.1.15,2013-11-06 02:04:00,
2013-11-05 21:05:00,54.5,49.4,30.41,NNW,343,0.0,0.0,83,0.00,,,0.00,Wunderground v.1.15,2013-11-06 02:05:00,
2013-11-05 21:06:00,54.5,49.4,30.41,NNW,343,0.0,0.0,83,0.00,,,0.00,Wunderground v.1.15,2013-11-06 02:06:00,
2013-11-05 21:07:00,54.5,49.4,30.41,NNW,343,0.0,0.0,83,0.00,,,0.00,Wunderground v.1.15,2013-11-06 02:07:00,
2013-11-05 21:09:00,54.5,49.4,30.41,NNW,343,0.0,0.0,83,0.00,,,0.00,Wunderground v.1.15,2013-11-06 02:09:00,
2013-11-05 21:10:00,54.5,49.4,30.41,NNW,343,0.0,0.0,83,0.00,,,0.00,Wunderground v.1.15,2013-11-06 02:10:00,
2013-11-05 21:11:00,54.5,49.4,30.41,NNW,343,0.0,0.0,83,0.00,,,0.00,Wunderground v.1.15,2013-11-06 02:11:00,
2013-11-05 21:12:00,54.5,49.4,30.41,NNW,343,0.0,0.0,83,0.00,,,0.00,Wunderground v.1.15,2013-11-06 02:12:00,
2013-11-05 21:14:00,54.5,49.4,30.41,NNW,342,0.0,1.0,83,0.00,,,0.00,Wunderground v.1.15,2013-11-06 02:14:00,
2013-11-05 21:15:00,54.5,49.4,30.41,NNW,343,0.0,1.0,83,0.00,,,0.00,Wunderground v.1.15,2013-11-06 02:15:00,
2013-11-05 21:16:00,54.5,49.8,30.41,NNW,343,0.0,1.0,84,0.00,,,0.00,Wunderground v.1.15,2013-11-06 02:16:00,
2013-11-05 21:17:00,54.5,49.8,30.41,NNW,343,0.0,1.0,84,0.00,,,0.00,Wunderground v.1.15,2013-11-06 02:17:00,
2013-11-05 21:20:00,54.5,49.8,30.41,NNW,342,0.0,1.0,84,0.00,,,0.00,Wunderground v.1.15,2013-11-06 02:20:00,
2013-11-05 21:21:00,54.5,49.8,30.41,NNW,343,0.0,0.0,84,0.00,,,0.00,Wunderground v.1.15,2013-11-06 02:21:00,
2013-11-05 21:23:00,54.4,49.7,30.41,NNW,343,0.0,0.0,84,0.00,,,0.00,Wunderground v.1.15,2013-11-06 02:23:00,
2013-11-05 21:25:00,54.4,49.7,30.41,NNW,343,0.0,0.0,84,0.00,,,0.00,Wunderground v.1.15,2013-11-06 02:25:00,
2013-11-05 21:26:00,54.4,49.7,30.41,NNW,343,0.0,0.0,84,0.00,,,0.00,Wunderground v.1.15,2013-11-06 02:26:00,
2013-11-05 21:28:00,54.4,49.7,30.41,NNW,343,0.0,0.0,84,0.00,,,0.00,Wunderground v.1.15,2013-11-06 02:28:00,
2013-11-05 21:30:00,54.4,49.7,30.41,NNW,343,0.0,0.0,84,0.00,,,0.00,Wunderground v.1.15,2013-11-06 02:30:00,
2013-11-05 21:31:00,54.4,49.7,30.41,NNW,343,0.0,1.0,84,0.00,,,0.00,Wunderground v.1.15,2013-11-06 02:31:00,
2013-11-05 21:33:00,54.3,49.6,30.41,NNW,343,0.0,1.0,84,0.00,,,0.00,Wunderground v.1.15,2013-11-06 02:33:00,
2013-11-05 21:35:00,54.4,49.7,30.41,NNW,343,0.0,1.0,84,0.00,,,0.00,Wunderground v.1.15,2013-11-06 02:35:00,
2013-11-05 21:37:00,54.4,49.7,30.41,NNW,342,0.0,1.0,84,0.00,,,0.00,Wunderground v.1.15,2013-11-06 02:37:00,
2013-11-05 21:38:00,54.4,49.7,30.41,NNW,343,0.0,1.0,84,0.00,,,0.00,Wunderground v.1.15,2013-11-06 02:38:00,
2013-11-05 21:40:00,54.4,49.7,30.41,NNW,343,0.0,0.0,84,0.00,,,0.00,Wunderground v.1.15,2013-11-06 02:40:00,
2013-11-05 21:41:00,54.3,49.6,30.41,NNW,343,0.0,0.0,84,0.00,,,0.00,Wunderground v.1.15,2013-11-06 02:41:00,
2013-11-05 21:42:00,54.4,49.7,30.41,NNW,343,0.0,0.0,84,0.00,,,0.00,Wunderground v.1.15,2013-11-06 02:42:00,
2013-11-05 21:43:00,54.3,49.6,30.41,NNW,343,0.0,1.0,84,0.00,,,0.00,Wunderground v.1.15,2013-11-06 02:43:00,
2013-11-05 21:46:00,54.3,49.6,30.41,NNW,343,0.0,1.0,84,0.00,,,0.00,Wunderground v.1.15,2013-11-06 02:46:00,
2013-11-05 21:47:00,54.3,49.6,30.41,NNW,343,0.0,1.0,84,0.00,,,0.00,Wunderground v.1.15,2013-11-06 02:47:00,
2013-11-05 21:48:00,54.3,49.6,30.41,NNW,343,0.0,1.0,84,0.00,,,0.00,Wunderground v.1.15,2013-11-06 02:48:00,
2013-11-05 21:51:00,54.3,49.9,30.41,NNW,342,0.0,0.0,85,0.00,,,0.00,Wunderground v.1.15,2013-11-06 02:51:00,
2013-11-05 21:52:00,54.3,49.9,30.41,NNW,341,0.0,0.0,85,0.00,,,0.00,Wunderground v.1.15,2013-11-06 02:52:00,
2013-11-05 21:53:00,54.3,49.9,30.41,NNW,342,0.0,0.0,85,0.00,,,0.00,Wunderground v.1.15,2013-11-06 02:53:00,
2013-11-05 21:56:00,54.3,49.9,30.41,NNW,341,0.0,1.0,85,0.00,,,0.00,Wunderground v.1.15,2013-11-06 02:56:00,
2013-11-05 21:57:00,54.2,49.8,30.41,NNW,341,0.0,1.0,85,0.00,,,0.00,Wunderground v.1.15,2013-11-06 02:57:00,
2013-11-05 21:58:00,54.2,49.8,30.41,NNW,341,0.0,1.0,85,0.00,,,0.00,Wunderground v.1.15,2013-11-06 02:58:00,
2013-11-05 21:59:00,54.2,49.8,30.41,NNW,341,0.0,1.0,85,0.00,,,0.00,Wunderground v.1.15,2013-11-06 02:59:00,
2013-11-05 22:01:00,54.2,49.8,30.41,NNW,341,0.0,0.0,85,0.00,,,0.00,Wunderground v.1.15,2013-11-06 03:01:00,
2013-11-05 22:02:00,54.2,49.8,30.41,NNW,342,0.0,0.0,85,0.00,,,0.00,Wunderground v.1.15,2013-11-06 03:02:00,
2013-11-05 22:04:00,54.2,49.8,30.41,NNW,342,0.0,0.0,85,0.00,,,0.00,Wunderground v.1.15,2013-11-06 03:04:00,
2013-11-05 22:06:00,54.1,49.7,30.41,NNW,342,0.0,0.0,85,0.00,,,0.00,Wunderground v.1.15,2013-11-06 03:06:00,
2013-11-05 22:08:00,54.1,49.7,30.41,NNW,341,0.0,0.0,85,0.00,,,0.00,Wunderground v.1.15,2013-11-06 03:08:00,
2013-11-05 22:09:00,54.1,49.7,30.41,NNW,342,0.0,0.0,85,0.00,,,0.00,Wunderground v.1.15,2013-11-06 03:09:00,
2013-11-05 22:11:00,54.1,49.7,30.41,NNW,341,0.0,0.0,85,0.00,,,0.00,Wunderground v.1.15,2013-11-06 03:11:00,
2013-11-05 22:12:00,54.0,49.6,30.41,NNW,341,0.0,0.0,85,0.00,,,0.00,Wunderground v.1.15,2013-11-06 03:12:00,
2013-11-05 22:13:00,54.0,49.6,30.41,NNW,342,0.0,0.0,85,0.00,,,0.00,Wunderground v.1.15,2013-11-06 03:13:00,
2013-11-05 22:14:00,54.0,49.9,30.40,NNW,342,0.0,0.0,86,0.00,,,0.00,Wunderground v.1.15,2013-11-06 03:14:00,
2013-11-05 22:15:00,54.0,49.9,30.40,NNW,342,0.0,0.0,86,0.00,,,0.00,Wunderground v.1.15,2013-11-06 03:15:00,
2013-11-05 22:16:00,54.0,49.9,30.40,NNW,342,0.0,0.0,86,0.00,,,0.00,Wunderground v.1.15,2013-11-06 03:16:00,
2013-11-05 22:17:00,54.0,49.9,30.40,NNW,341,0.0,0.0,86,0.00,,,0.00,Wunderground v.1.15,2013-11-06 03:17:00,
2013-11-05 22:18:00,53.9,49.8,30.40,NNW,342,0.0,0.0,86,0.00,,,0.00,Wunderground v.1.15,2013-11-06 03:18:00,
2013-11-05 22:20:00,53.9,49.8,30.40,NNW,342,0.0,0.0,86,0.00,,,0.00,Wunderground v.1.15,2013-11-06 03:20:00,
2013-11-05 22:21:00,53.9,49.8,30.40,NNW,342,0.0,0.0,86,0.00,,,0.00,Wunderground v.1.15,2013-11-06 03:21:00,
2013-11-05 22:22:00,53.8,49.7,30.40,NNW,342,0.0,0.0,86,0.00,,,0.00,Wunderground v.1.15,2013-11-06 03:22:00,
2013-11-05 22:23:00,53.8,49.7,30.40,NNW,342,0.0,0.0,86,0.00,,,0.00,Wunderground v.1.15,2013-11-06 03:23:00,
2013-11-05 22:25:00,53.8,49.7,30.40,NNW,341,0.0,0.0,86,0.00,,,0.00,Wunderground v.1.15,2013-11-06 03:25:00,
2013-11-05 22:26:00,53.8,49.7,30.40,NNW,342,0.0,0.0,86,0.00,,,0.00,Wunderground v.1.15,2013-11-06 03:26:00,
2013-11-05 22:27:00,53.8,49.7,30.40,NNW,342,0.0,0.0,86,0.00,,,0.00,Wunderground v.1.15,2013-11-06 03:27:00,
2013-11-05 22:29:00,53.8,49.7,30.40,NNW,341,0.0,0.0,86,0.00,,,0.00,Wunderground v.1.15,2013-11-06 03:29:00,
2013-11-05 22:30:00,53.7,49.6,30.40,NNW,342,0.0,0.0,86,0.00,,,0.00,Wunderground v.1.15,2013-11-06 03:30:00,
2013-11-05 22:31:00,53.7,49.6,30.40,NNW,341,0.0,0.0,86,0.00,,,0.00,Wunderground v.1.15,2013-11-06 03:31:00,
2013-11-05 22:32:00,53.7,49.9,30.40,NNW,342,0.0,0.0,87,0.00,,,0.00,Wunderground v.1.15,2013-11-06 03:32:00,
2013-11-05 22:34:00,53.6,49.8,30.40,NNW,342,0.0,0.0,87,0.00,,,0.00,Wunderground v.1.15,2013-11-06 03:34:00,
2013-11-05 22:35:00,53.7,49.9,30.40,NNW,342,0.0,0.0,87,0.00,,,0.00,Wunderground v.1.15,2013-11-06 03:35:00,
2013-11-05 22:36:00,53.6,49.8,30.40,NNW,342,0.0,0.0,87,0.00,,,0.00,Wunderground v.1.15,2013-11-06 03:36:00,
2013-11-05 22:37:00,53.6,49.8,30.40,NNW,341,0.0,0.0,87,0.00,,,0.00,Wunderground v.1.15,2013-11-06 03:37:00,
2013-11-05 22:39:00,53.6,49.8,30.40,NNW,341,0.0,0.0,87,0.00,,,0.00,Wunderground v.1.15,2013-11-06 03:39:00,
2013-11-05 22:41:00,53.5,49.7,30.40,NNW,342,0.0,0.0,87,0.00,,,0.00,Wunderground v.1.15,2013-11-06 03:41:00,
2013-11-05 22:42:00,53.5,49.7,30.40,NNW,341,0.0,0.0,87,0.00,,,0.00,Wunderground v.1.15,2013-11-06 03:42:00,
2013-11-05 22:43:00,53.5,49.7,30.40,NNW,341,0.0,0.0,87,0.00,,,0.00,Wunderground v.1.15,2013-11-06 03:43:00,
2013-11-05 22:44:00,53.5,49.7,30.40,NNW,341,0.0,0.0,87,0.00,,,0.00,Wunderground v.1.15,2013-11-06 03:44:00,
2013-11-05 22:46:00,53.4,49.6,30.40,NNW,342,0.0,0.0,87,0.00,,,0.00,Wunderground v.1.15,2013-11-06 03:46:00,
2013-11-05 22:47:00,53.4,49.6,30.40,NNW,342,0.0,0.0,87,0.00,,,0.00,Wunderground v.1.15,2013-11-06 03:47:00,
2013-11-05 22:48:00,53.4,49.6,30.40,NNW,341,0.0,0.0,87,0.00,,,0.00,Wunderground v.1.15,2013-11-06 03:48:00,
2013-11-05 22:50:00,53.4,49.6,30.40,NNW,341,0.0,0.0,87,0.00,,,0.00,Wunderground v.1.15,2013-11-06 03:50:00,
2013-11-05 22:51:00,53.4,49.6,30.40,NNW,342,0.0,0.0,87,0.00,,,0.00,Wunderground v.1.15,2013-11-06 03:51:00,
2013-11-05 22:52:00,53.4,49.6,30.40,NNW,342,0.0,0.0,87,0.00,,,0.00,Wunderground v.1.15,2013-11-06 03:52:00,
2013-11-05 22:53:00,53.4,49.6,30.40,NNW,342,0.0,0.0,87,0.00,,,0.00,Wunderground v.1.15,2013-11-06 03:53:00,
2013-11-05 22:55:00,53.4,49.6,30.40,NNW,342,0.0,1.0,87,0.00,,,0.00,Wunderground v.1.15,2013-11-06 03:55:00,
2013-11-05 22:57:00,53.4,49.9,30.40,NNW,342,0.0,1.0,88,0.00,,,0.00,Wunderground v.1.15,2013-11-06 03:57:00,
2013-11-05 22:58:00,53.4,49.9,30.40,NNW,342,0.0,1.0,88,0.00,,,0.00,Wunderground v.1.15,2013-11-06 03:58:00,
2013-11-05 23:01:00,53.3,49.8,30.40,NNW,342,0.0,0.0,88,0.00,,,0.00,Wunderground v.1.15,2013-11-06 04:01:00,
2013-11-05 23:02:00,53.4,49.9,30.40,NNW,343,0.0,0.0,88,0.00,,,0.00,Wunderground v.1.15,2013-11-06 04:02:00,
2013-11-05 23:03:00,53.3,49.8,30.40,NNW,341,0.0,0.0,88,0.00,,,0.00,Wunderground v.1.15,2013-11-06 04:03:00,
2013-11-05 23:06:00,53.3,49.8,30.40,NNW,341,0.0,0.0,88,0.00,,,0.00,Wunderground v.1.15,2013-11-06 04:06:00,
2013-11-05 23:07:00,53.3,49.8,30.40,NNW,342,0.0,0.0,88,0.00,,,0.00,Wunderground v.1.15,2013-11-06 04:07:00,
2013-11-05 23:08:00,53.3,49.8,30.40,NNW,342,0.0,0.0,88,0.00,,,0.00,Wunderground v.1.15,2013-11-06 04:08:00,
2013-11-05 23:09:00,53.3,49.8,30.40,NNW,342,0.0,0.0,88,0.00,,,0.00,Wunderground v.1.15,2013-11-06 04:09:00,
2013-11-05 23:12:00,53.2,49.7,30.40,NNW,342,0.0,0.0,88,0.00,,,0.00,Wunderground v.1.15,2013-11-06 04:12:00,
2013-11-05 23:13:00,53.2,49.7,30.40,NNW,342,0.0,0.0,88,0.00,,,0.00,Wunderground v.1.15,2013-11-06 04:13:00,
2013-11-05 23:14:00,53.2,49.7,30.40,NNW,341,0.0,0.0,88,0.00,,,0.00,Wunderground v.1.15,2013-11-06 04:14:00,
2013-11-05 23:17:00,53.1,49.6,30.39,NNW,342,0.0,0.0,88,0.00,,,0.00,Wunderground v.1.15,2013-11-06 04:17:00,
2013-11-05 23:18:00,53.1,49.6,30.39,NNW,342,0.0,0.0,88,0.00,,,0.00,Wunderground v.1.15,2013-11-06 04:18:00,
2013-11-05 23:19:00,53.1,49.6,30.40,NNW,342,0.0,0.0,88,0.00,,,0.00,Wunderground v.1.15,2013-11-06 04:19:00,
2013-11-05 23:22:00,53.0,49.5,30.40,NNW,342,0.0,0.0,88,0.00,,,0.00,Wunderground v.1.15,2013-11-06 04:22:00,
2013-11-05 23:23:00,53.0,49.5,30.40,NNW,342,0.0,0.0,88,0.00,,,0.00,Wunderground v.1.15,2013-11-06 04:23:00,
2013-11-05 23:24:00,53.0,49.5,30.40,NNW,341,0.0,0.0,88,0.00,,,0.00,Wunderground v.1.15,2013-11-06 04:24:00,
2013-11-05 23:25:00,52.9,49.4,30.39,NNW,342,0.0,0.0,88,0.00,,,0.00,Wunderground v.1.15,2013-11-06 04:25:00,
2013-11-05 23:27:00,52.9,49.4,30.39,NNW,342,0.0,0.0,88,0.00,,,0.00,Wunderground v.1.15,2013-11-06 04:27:00,
2013-11-05 23:28:00,52.8,49.3,30.39,NNW,342,0.0,0.0,88,0.00,,,0.00,Wunderground v.1.15,2013-11-06 04:28:00,
2013-11-05 23:29:00,52.8,49.3,30.39,NNW,342,0.0,0.0,88,0.00,,,0.00,Wunderground v.1.15,2013-11-06 04:29:00,
2013-11-05 23:30:00,52.8,49.3,30.39,NNW,342,0.0,0.0,88,0.00,,,0.00,Wunderground v.1.15,2013-11-06 04:30:00,
2013-11-05 23:32:00,52.7,49.5,30.39,NNW,341,0.0,0.0,89,0.00,,,0.00,Wunderground v.1.15,2013-11-06 04:32:00,
2013-11-05 23:33:00,52.7,49.5,30.39,NNW,342,0.0,0.0,89,0.00,,,0.00,Wunderground v.1.15,2013-11-06 04:33:00,
2013-11-05 23:34:00,52.6,49.4,30.39,NNW,341,0.0,0.0,89,0.00,,,0.00,Wunderground v.1.15,2013-11-06 04:34:00,
2013-11-05 23:35:00,52.6,49.4,30.38,NNW,342,0.0,0.0,89,0.00,,,0.00,Wunderground v.1.15,2013-11-06 04:35:00,
2013-11-05 23:36:00,52.6,49.4,30.39,NNW,341,0.0,0.0,89,0.00,,,0.00,Wunderground v.1.15,2013-11-06 04:36:00,
2013-11-05 23:37:00,52.6,49.4,30.39,NNW,342,0.0,0.0,89,0.00,,,0.00,Wunderground v.1.15,2013-11-06 04:37:00,
2013-11-05 23:38:00,52.5,49.4,30.39,NNW,341,0.0,0.0,89,0.00,,,0.00,Wunderground v.1.15,2013-11-06 04:38:00,
2013-11-05 23:39:00,52.5,49.4,30.39,NNW,341,0.0,0.0,89,0.00,,,0.00,Wunderground v.1.15,2013-11-06 04:39:00,
2013-11-05 23:40:00,52.5,49.4,30.39,NNW,341,0.0,0.0,89,0.00,,,0.00,Wunderground v.1.15,2013-11-06 04:40:00,
2013-11-05 23:41:00,52.4,49.3,30.39,NNW,341,0.0,0.0,89,0.00,,,0.00,Wunderground v.1.15,2013-11-06 04:41:00,
2013-11-05 23:42:00,52.4,49.3,30.39,NNW,342,0.0,0.0,89,0.00,,,0.00,Wunderground v.1.15,2013-11-06 04:42:00,
2013-11-05 23:43:00,52.4,49.3,30.39,NNW,341,0.0,0.0,89,0.00,,,0.00,Wunderground v.1.15,2013-11-06 04:43:00,
2013-11-05 23:44:00,52.3,49.2,30.39,NNW,341,0.0,0.0,89,0.00,,,0.00,Wunderground v.1.15,2013-11-06 04:44:00,
2013-11-05 23:45:00,52.3,49.2,30.38,NNW,342,0.0,0.0,89,0.00,,,0.00,Wunderground v.1.15,2013-11-06 04:45:00,
2013-11-05 23:46:00,52.2,49.4,30.38,NNW,342,0.0,0.0,90,0.00,,,0.00,Wunderground v.1.15,2013-11-06 04:46:00,
2013-11-05 23:47:00,52.2,49.4,30.38,NNW,342,0.0,0.0,90,0.00,,,0.00,Wunderground v.1.15,2013-11-06 04:47:00,
2013-11-05 23:48:00,52.2,49.4,30.38,NNW,341,0.0,0.0,90,0.00,,,0.00,Wunderground v.1.15,2013-11-06 04:48:00,
2013-11-05 23:49:00,52.2,49.4,30.38,NNW,341,0.0,0.0,90,0.00,,,0.00,Wunderground v.1.15,2013-11-06 04:49:00,
2013-11-05 23:50:00,52.1,49.3,30.38,NNW,342,0.0,0.0,90,0.00,,,0.00,Wunderground v.1.15,2013-11-06 04:50:00,
2013-11-05 23:52:00,52.0,49.2,30.39,NNW,341,0.0,0.0,90,0.00,,,0.00,Wunderground v.1.15,2013-11-06 04:52:00,
2013-11-05 23:54:00,52.0,49.2,30.39,NNW,341,0.0,0.0,90,0.00,,,0.00,Wunderground v.1.15,2013-11-06 04:54:00,
2013-11-05 23:55:00,52.0,49.2,30.39,NNW,341,0.0,0.0,90,0.00,,,0.00,Wunderground v.1.15,2013-11-06 04:55:00,
2013-11-05 23:57:00,51.8,49.0,30.39,NNW,342,0.0,0.0,90,0.00,,,0.00,Wunderground v.1.15,2013-11-06 04:57:00,
2013-11-05 23:58:00,51.8,49.0,30.39,NNW,342,0.0,0.0,90,0.00,,,0.00,Wunderground v.1.15,2013-11-06 04:58:00,
2013-11-05 23:59:00,51.8,49.0,30.39,NNW,341,0.0,0.0,90,0.00,,,0.00,Wunderground v.1.15,2013-11-06 04:59:00,